Wetterdaten: Mittwoch, 22.03.2017
Datum Zeit Temp. Aussen Temp. o. S. +5cm Feuchte Auss BlattFeu 1 Luftdruck Regen Sonnenschein Regendauer Solar Windben Empfang
22.03.2017 00:00 2,5 C 2,8 C 0,6 C 87 % 0 lf 1013,5 hPa 0,0 l/m 0 min 0 min 0 W/m 6,3 km/h (2 Bft) 93,62 %
22.03.2017 00:02 2,5 C 2,8 C 0,6 C 87 % 0 lf 1013,5 hPa 0,0 l/m 0 min 0 min 0 W/m 4,2 km/h (1 Bft) 97,30 %
22.03.2017 00:05 2,5 C 2,8 C 1,1 C 88 % 0 lf 1013,5 hPa 0,0 l/m 0 min 0 min 11 W/m 12,6 km/h (3 Bft) 97,30 %
22.03.2017 00:06 2,5 C 2,8 C 1,1 C 88 % 0 lf 1013,5 hPa 0,0 l/m 0 min 0 min 11 W/m 12,6 km/h (3 Bft) 97,30 %
22.03.2017 00:08 2,5 C 2,8 C 1,1 C 88 % 0 lf 1013,6 hPa 0,0 l/m 0 min 0 min 11 W/m 12,6 km/h (3 Bft) 97,30 %
22.03.2017 00:10 2,6 C 3,3 C 1,1 C 88 % 0 lf 1013,6 hPa 0,0 l/m 0 min 0 min 19 W/m 12,6 km/h (3 Bft) 97,30 %
22.03.2017 00:12 2,6 C 3,3 C 1,1 C 88 % 0 lf 1013,6 hPa 0,0 l/m 0 min 0 min 12 W/m 12,6 km/h (3 Bft) 97,30 %
22.03.2017 00:14 2,6 C 3,3 C 1,1 C 88 % 0 lf 1013,6 hPa 0,0 l/m 0 min 0 min 0 W/m 12,6 km/h (3 Bft) 94,31 %
22.03.2017 00:16 2,6 C 3,3 C 1,1 C 88 % 0 lf 1013,6 hPa 0,0 l/m 0 min 0 min 0 W/m 4,2 km/h (1 Bft) 93,62 %
22.03.2017 00:18 2,6 C 3,3 C 1,1 C 88 % 0 lf 1013,6 hPa 0,0 l/m 0 min 0 min 0 W/m 4,2 km/h (1 Bft) 93,62 %
22.03.2017 00:20 2,6 C 3,3 C 1,1 C 88 % 0 lf 1013,6 hPa 0,0 l/m 0 min 0 min 0 W/m 6,3 km/h (2 Bft) 95,74 %
22.03.2017 00:22 2,6 C 3,3 C 1,1 C 88 % 0 lf 1013,5 hPa 0,0 l/m 0 min 0 min 0 W/m 6,3 km/h (2 Bft) 97,83 %
22.03.2017 00:24 2,7 C 3,3 C 1,1 C 88 % 0 lf 1013,6 hPa 0,0 l/m 0 min 0 min 0 W/m 8,4 km/h (2 Bft) 100,00 %
22.03.2017 00:26 2,7 C 3,3 C 1,1 C 89 % 0 lf 1013,6 hPa 0,0 l/m 0 min 0 min 0 W/m 6,3 km/h (2 Bft) 95,74 %
22.03.2017 00:28 2,7 C 3,3 C 1,1 C 89 % 0 lf 1013,5 hPa 0,0 l/m 0 min 0 min 0 W/m 8,4 km/h (2 Bft) 97,87 %
22.03.2017 00:30 2,7 C 3,3 C 1,1 C 89 % 0 lf 1013,5 hPa 0,0 l/m 0 min 0 min 0 W/m 8,4 km/h (2 Bft) 95,74 %
22.03.2017 00:32 2,7 C 3,3 C 1,1 C 89 % 0 lf 1013,5 hPa 0,0 l/m 0 min 0 min 0 W/m 8,4 km/h (2 Bft) 100,00 %
22.03.2017 00:34 2,7 C 3,3 C 1,1 C 89 % 0 lf 1013,5 hPa 0,0 l/m 0 min 0 min 0 W/m 4,2 km/h (1 Bft) 100,00 %
22.03.2017 00:36 2,7 C 3,9 C 1,1 C 89 % 0 lf 1013,4 hPa 0,0 l/m 0 min 0 min 0 W/m 4,2 km/h (1 Bft) 97,87 %
22.03.2017 00:38 2,7 C 3,9 C 1,1 C 89 % 0 lf 1013,4 hPa 0,0 l/m 0 min 0 min 0 W/m 4,2 km/h (1 Bft) 100,00 %
22.03.2017 00:40 2,7 C 3,9 C 1,1 C 89 % 0 lf 1013,4 hPa 0,0 l/m 0 min 0 min 0 W/m 4,2 km/h (1 Bft) 100,00 %
22.03.2017 00:42 2,7 C 3,9 C 1,1 C 89 % 0 lf 1013,4 hPa 0,0 l/m 0 min 0 min 0 W/m 6,3 km/h (2 Bft) 97,87 %
22.03.2017 00:44 2,8 C 3,9 C 1,1 C 88 % 0 lf 1013,4 hPa 0,0 l/m 0 min 0 min 0 W/m 6,3 km/h (2 Bft) 100,00 %
22.03.2017 00:46 2,8 C 3,9 C 1,1 C 88 % 0 lf 1013,4 hPa 0,0 l/m 0 min 0 min 0 W/m 6,3 km/h (2 Bft) 97,83 %
22.03.2017 00:48 2,8 C 3,9 C 1,1 C 88 % 0 lf 1013,4 hPa 0,0 l/m 0 min 0 min 0 W/m 6,3 km/h (2 Bft) 97,87 %
22.03.2017 00:50 2,8 C 3,9 C 1,1 C 88 % 0 lf 1013,4 hPa 0,0 l/m 0 min 0 min 0 W/m 6,3 km/h (2 Bft) 100,00 %
22.03.2017 00:52 2,8 C 3,9 C 1,1 C 88 % 0 lf 1013,4 hPa 0,0 l/m 0 min 0 min 0 W/m 6,3 km/h (2 Bft) 97,87 %
22.03.2017 00:54 2,9 C 3,9 C 1,1 C 88 % 0 lf 1013,4 hPa 0,0 l/m 0 min 0 min 0 W/m 6,3 km/h (2 Bft) 97,87 %
22.03.2017 00:56 2,9 C 3,9 C 1,1 C 88 % 0 lf 1013,3 hPa 0,0 l/m 0 min 0 min 0 W/m 6,3 km/h (2 Bft) 97,83 %
22.03.2017 00:58 2,9 C 3,9 C 1,1 C 88 % 0 lf 1013,3 hPa 0,0 l/m 0 min 0 min 0 W/m 6,3 km/h (2 Bft) 91,49 %
22.03.2017 01:00 2,9 C 3,9 C 1,1 C 87 % 0 lf 1013,3 hPa 0,0 l/m 0 min 0 min 0 W/m 6,3 km/h (2 Bft) 95,74 %
22.03.2017 01:02 2,9 C 3,9 C 1,1 C 87 % 0 lf 1013,3 hPa 0,0 l/m 0 min 0 min 0 W/m 6,3 km/h (2 Bft) 97,87 %
22.03.2017 01:04 2,9 C 3,9 C 1,1 C 87 % 0 lf 1013,3 hPa 0,0 l/m 0 min 0 min 0 W/m 6,3 km/h (2 Bft) 91,49 %
22.03.2017 01:06 3,0 C 3,9 C 1,1 C 87 % 0 lf 1013,3 hPa 0,0 l/m 0 min 0 min 0 W/m 6,3 km/h (2 Bft) 93,62 %
22.03.2017 01:08 3,0 C 3,9 C 1,1 C 87 % 0 lf 1013,3 hPa 0,0 l/m 0 min 0 min 0 W/m 6,3 km/h (2 Bft) 91,30 %
22.03.2017 01:10 3,0 C 3,9 C 1,1 C 87 % 0 lf 1013,3 hPa 0,0 l/m 0 min 0 min 0 W/m 6,3 km/h (2 Bft) 93,62 %
22.03.2017 01:12 3,1 C 3,9 C 1,1 C 86 % 0 lf 1013,3 hPa 0,0 l/m 0 min 0 min 0 W/m 6,3 km/h (2 Bft) 95,74 %
22.03.2017 01:14 3,1 C 3,9 C 1,1 C 86 % 0 lf 1013,3 hPa 0,0 l/m 0 min 0 min 0 W/m 6,3 km/h (2 Bft) 95,74 %
22.03.2017 01:16 3,1 C 3,3 C 1,1 C 86 % 0 lf 1013,3 hPa 0,0 l/m 0 min 0 min 0 W/m 6,3 km/h (2 Bft) 91,49 %
22.03.2017 01:18 3,1 C 3,3 C 1,1 C 86 % 0 lf 1013,3 hPa 0,0 l/m 0 min 0 min 0 W/m 6,3 km/h (2 Bft) 95,74 %
22.03.2017 01:20 3,1 C 3,3 C 0,6 C 86 % 0 lf 1013,3 hPa 0,0 l/m 0 min 0 min 0 W/m 6,3 km/h (2 Bft) 93,48 %
22.03.2017 01:22 3,1 C 3,3 C 0,6 C 86 % 0 lf 1013,3 hPa 0,0 l/m 0 min 0 min 0 W/m 6,3 km/h (2 Bft) 93,62 %
22.03.2017 01:24 3,1 C 3,3 C 0,6 C 85 % 0 lf 1013,4 hPa 0,0 l/m 0 min 0 min 0 W/m 6,3 km/h (2 Bft) 93,62 %
22.03.2017 01:26 3,1 C 2,8 C 0,6 C 85 % 0 lf 1013,3 hPa 0,0 l/m 0 min 0 min 0 W/m 6,3 km/h (2 Bft) 93,62 %
22.03.2017 01:28 3,1 C 3,3 C 0,6 C 85 % 0 lf 1013,3 hPa 0,0 l/m 0 min 0 min 0 W/m 6,3 km/h (2 Bft) 95,74 %
22.03.2017 01:30 3,1 C 3,3 C 0,0 C 85 % 0 lf 1013,3 hPa 0,0 l/m 0 min 0 min 0 W/m 6,3 km/h (2 Bft) 95,74 %
22.03.2017 01:32 3,1 C 2,8 C 0,0 C 85 % 0 lf 1013,3 hPa 0,0 l/m 0 min 0 min 0 W/m 6,3 km/h (2 Bft) 89,13 %
22.03.2017 01:34 3,1 C 2,8 C 0,0 C 85 % 0 lf 1013,3 hPa 0,0 l/m 0 min 0 min 0 W/m 6,3 km/h (2 Bft) 93,62 %
22.03.2017 01:36 3,1 C 2,8 C 0,0 C 85 % 0 lf 1013,3 hPa 0,0 l/m 0 min 0 min 0 W/m 6,3 km/h (2 Bft) 93,62 %
22.03.2017 01:38 3,1 C 2,8 C 0,0 C 85 % 0 lf 1013,3 hPa 0,0 l/m 0 min 0 min 0 W/m 6,3 km/h (2 Bft) 95,74 %
22.03.2017 01:40 3,1 C 2,8 C 0,0 C 85 % 0 lf 1013,3 hPa 0,0 l/m 0 min 0 min 0 W/m 4,2 km/h (1 Bft) 91,49 %
22.03.2017 01:42 3,1 C 2,8 C 0,0 C 84 % 0 lf 1013,3 hPa 0,0 l/m 0 min 0 min 0 W/m 6,3 km/h (2 Bft) 91,49 %
22.03.2017 01:44 3,1 C 2,8 C 0,0 C 84 % 0 lf 1013,3 hPa 0,0 l/m 0 min 0 min 0 W/m 4,2 km/h (1 Bft) 91,30 %
22.03.2017 01:46 3,0 C 2,8 C 0,0 C 84 % 0 lf 1013,2 hPa 0,0 l/m 0 min 0 min 0 W/m 6,3 km/h (2 Bft) 93,62 %
22.03.2017 01:48 3,0 C 2,8 C 0,0 C 84 % 0 lf 1013,3 hPa 0,0 l/m 0 min 0 min 0 W/m 4,2 km/h (1 Bft) 91,49 %
22.03.2017 01:50 3,0 C 2,8 C -0,6 C 84 % 0 lf 1013,3 hPa 0,0 l/m 0 min 0 min 0 W/m 6,3 km/h (2 Bft) 95,74 %
22.03.2017 01:52 3,0 C 2,8 C -0,6 C 84 % 0 lf 1013,3 hPa 0,0 l/m 0 min 0 min 0 W/m 6,3 km/h (2 Bft) 93,62 %
22.03.2017 01:54 2,9 C 2,8 C -0,6 C 84 % 0 lf 1013,3 hPa 0,0 l/m 0 min 0 min 0 W/m 6,3 km/h (2 Bft) 87,23 %
22.03.2017 01:56 2,9 C 2,8 C -0,6 C 84 % 0 lf 1013,2 hPa 0,0 l/m 0 min 0 min 0 W/m 6,3 km/h (2 Bft) 93,48 %
22.03.2017 01:58 2,9 C 2,8 C -0,6 C 84 % 0 lf 1013,3 hPa 0,0 l/m 0 min 0 min 0 W/m 6,3 km/h (2 Bft) 93,62 %
22.03.2017 02:00 2,9 C 2,8 C -0,6 C 84 % 0 lf 1013,3 hPa 0,0 l/m 0 min 0 min 0 W/m 4,2 km/h (1 Bft) 89,36 %
22.03.2017 02:02 2,9 C 2,8 C -0,6 C 84 % 0 lf 1013,2 hPa 0,0 l/m 0 min 0 min 0 W/m 6,3 km/h (2 Bft) 91,49 %
22.03.2017 02:04 2,8 C 2,8 C -0,6 C 84 % 0 lf 1013,2 hPa 0,0 l/m 0 min 0 min 5 W/m 4,2 km/h (1 Bft) 91,49 %
22.03.2017 02:06 2,8 C 2,8 C -0,6 C 84 % 0 lf 1013,2 hPa 0,0 l/m 0 min 0 min 5 W/m 6,3 km/h (2 Bft) 95,65 %
22.03.2017 02:08 2,8 C 2,8 C -0,6 C 84 % 0 lf 1013,2 hPa 0,0 l/m 0 min 0 min 5 W/m 4,2 km/h (1 Bft) 93,62 %
22.03.2017 02:10 2,8 C 2,8 C -0,6 C 84 % 0 lf 1013,2 hPa 0,0 l/m 0 min 0 min 5 W/m 4,2 km/h (1 Bft) 95,74 %
22.03.2017 02:12 2,8 C 2,8 C -0,6 C 84 % 0 lf 1013,2 hPa 0,0 l/m 0 min 0 min 5 W/m 4,2 km/h (1 Bft) 89,36 %
22.03.2017 02:14 2,7 C 2,8 C -0,6 C 84 % 0 lf 1013,2 hPa 0,0 l/m 0 min 0 min 5 W/m 4,2 km/h (1 Bft) 95,74 %
22.03.2017 02:16 2,7 C 2,2 C -0,6 C 84 % 0 lf 1013,2 hPa 0,0 l/m 0 min 0 min 0 W/m 6,3 km/h (2 Bft) 89,36 %
22.03.2017 02:18 2,7 C 2,2 C -0,6 C 84 % 0 lf 1013,2 hPa 0,0 l/m 0 min 0 min 0 W/m 4,2 km/h (1 Bft) 95,65 %
22.03.2017 02:20 2,7 C 2,2 C -0,6 C 84 % 0 lf 1013,2 hPa 0,0 l/m 0 min 0 min 0 W/m 4,2 km/h (1 Bft) 97,87 %
22.03.2017 02:22 2,7 C 2,2 C -0,6 C 84 % 0 lf 1013,2 hPa 0,0 l/m 0 min 0 min 5 W/m 6,3 km/h (2 Bft) 95,74 %
22.03.2017 02:24 2,7 C 2,2 C -0,6 C 84 % 0 lf 1013,2 hPa 0,0 l/m 0 min 0 min 5 W/m 6,3 km/h (2 Bft) 97,87 %
22.03.2017 02:26 2,6 C 2,2 C -0,6 C 84 % 0 lf 1013,2 hPa 0,0 l/m 0 min 0 min 3 W/m 6,3 km/h (2 Bft) 97,87 %
22.03.2017 02:28 2,6 C 2,2 C -0,6 C 84 % 0 lf 1013,2 hPa 0,0 l/m 0 min 0 min 5 W/m 8,4 km/h (2 Bft) 97,87 %
22.03.2017 02:30 2,6 C 2,2 C -0,6 C 84 % 0 lf 1013,3 hPa 0,0 l/m 0 min 0 min 5 W/m 6,3 km/h (2 Bft) 97,83 %
22.03.2017 02:32 2,5 C 2,2 C -1,1 C 84 % 0 lf 1013,3 hPa 0,0 l/m 0 min 0 min 2 W/m 6,3 km/h (2 Bft) 95,74 %
22.03.2017 02:34 2,5 C 2,2 C -1,1 C 84 % 0 lf 1013,3 hPa 0,0 l/m 0 min 0 min 0 W/m 6,3 km/h (2 Bft) 93,62 %
22.03.2017 02:36 2,5 C 2,2 C -1,1 C 84 % 0 lf 1013,3 hPa 0,0 l/m 0 min 0 min 5 W/m 6,3 km/h (2 Bft) 95,74 %
22.03.2017 02:38 2,4 C 2,2 C -1,1 C 84 % 0 lf 1013,3 hPa 0,0 l/m 0 min 0 min 0 W/m 8,4 km/h (2 Bft) 100,00 %
22.03.2017 02:40 2,4 C 2,2 C -1,1 C 85 % 0 lf 1013,2 hPa 0,0 l/m 0 min 0 min 0 W/m 8,4 km/h (2 Bft) 97,87 %
22.03.2017 02:42 2,4 C 2,2 C -1,1 C 85 % 0 lf 1013,2 hPa 0,0 l/m 0 min 0 min 5 W/m 6,3 km/h (2 Bft) 100,00 %
22.03.2017 02:44 2,4 C 2,8 C -0,6 C 85 % 0 lf 1013,2 hPa 0,0 l/m 0 min 0 min 5 W/m 6,3 km/h (2 Bft) 95,74 %
22.03.2017 02:46 2,4 C 2,8 C -0,6 C 85 % 0 lf 1013,3 hPa 0,0 l/m 0 min 0 min 0 W/m 4,2 km/h (1 Bft) 100,00 %
22.03.2017 02:48 2,4 C 2,8 C -0,6 C 85 % 0 lf 1013,2 hPa 0,0 l/m 0 min 0 min 0 W/m 6,3 km/h (2 Bft) 100,00 %
22.03.2017 02:50 2,3 C 2,2 C -0,6 C 85 % 0 lf 1013,2 hPa 0,0 l/m 0 min 0 min 0 W/m 8,4 km/h (2 Bft) 93,62 %
22.03.2017 02:52 2,3 C 2,2 C -0,6 C 85 % 0 lf 1013,2 hPa 0,0 l/m 0 min 0 min 0 W/m 6,3 km/h (2 Bft) 100,00 %
22.03.2017 02:54 2,3 C 2,2 C -0,6 C 85 % 0 lf 1013,2 hPa 0,0 l/m 0 min 0 min 0 W/m 6,3 km/h (2 Bft) 100,00 %
22.03.2017 02:56 2,3 C 2,2 C -0,6 C 85 % 0 lf 1013,2 hPa 0,0 l/m 0 min 0 min 5 W/m 6,3 km/h (2 Bft) 100,00 %
22.03.2017 02:58 2,3 C 2,2 C -1,1 C 85 % 0 lf 1013,1 hPa 0,0 l/m 0 min 0 min 5 W/m 6,3 km/h (2 Bft) 97,87 %
22.03.2017 03:00 2,3 C 2,2 C -1,1 C 85 % 0 lf 1013,1 hPa 0,0 l/m 0 min 0 min 5 W/m 4,2 km/h (1 Bft) 97,87 %
22.03.2017 03:02 2,3 C 2,2 C -1,1 C 85 % 0 lf 1013,1 hPa 0,0 l/m 0 min 0 min 5 W/m 4,2 km/h (1 Bft) 97,87 %
22.03.2017 03:04 2,3 C 2,2 C -1,1 C 85 % 0 lf 1013,1 hPa 0,0 l/m 0 min 0 min 5 W/m 4,2 km/h (1 Bft) 95,65 %
22.03.2017 03:06 2,3 C 2,2 C -1,1 C 85 % 0 lf 1013,1 hPa 0,0 l/m 0 min 0 min 5 W/m 4,2 km/h (1 Bft) 97,87 %
22.03.2017 03:08 2,2 C 1,7 C -1,1 C 86 % 0 lf 1013,1 hPa 0,0 l/m 0 min 0 min 5 W/m 4,2 km/h (1 Bft) 97,87 %
22.03.2017 03:10 2,2 C 1,7 C -1,1 C 86 % 0 lf 1013,1 hPa 0,0 l/m 0 min 0 min 5 W/m 6,3 km/h (2 Bft) 100,00 %
22.03.2017 03:12 2,2 C 2,2 C -1,1 C 86 % 0 lf 1013,1 hPa 0,0 l/m 0 min 0 min 5 W/m 6,3 km/h (2 Bft) 97,87 %
22.03.2017 03:14 2,2 C 1,7 C -1,1 C 86 % 0 lf 1013,1 hPa 0,0 l/m 0 min 0 min 5 W/m 6,3 km/h (2 Bft) 97,87 %
22.03.2017 03:16 2,2 C 1,7 C -1,1 C 86 % 0 lf 1013,1 hPa 0,0 l/m 0 min 0 min 5 W/m 6,3 km/h (2 Bft) 100,00 %
22.03.2017 03:18 2,1 C 1,7 C -1,1 C 86 % 0 lf 1013,1 hPa 0,0 l/m 0 min 0 min 5 W/m 6,3 km/h (2 Bft) 97,87 %
22.03.2017 03:20 2,1 C 1,7 C -1,1 C 86 % 0 lf 1013,1 hPa 0,0 l/m 0 min 0 min 5 W/m 4,2 km/h (1 Bft) 97,87 %
22.03.2017 03:22 2,1 C 2,2 C -1,1 C 86 % 0 lf 1013,1 hPa 0,0 l/m 0 min 0 min 5 W/m 6,3 km/h (2 Bft) 100,00 %
22.03.2017 03:24 2,1 C 1,7 C -1,1 C 86 % 0 lf 1013,1 hPa 0,0 l/m 0 min 0 min 5 W/m 6,3 km/h (2 Bft) 100,00 %
22.03.2017 03:26 2,1 C 1,7 C -1,1 C 86 % 0 lf 1013,1 hPa 0,0 l/m 0 min 0 min 5 W/m 6,3 km/h (2 Bft) 100,00 %
22.03.2017 03:28 2,1 C 2,2 C -1,1 C 86 % 0 lf 1013,2 hPa 0,0 l/m 0 min 0 min 5 W/m 6,3 km/h (2 Bft) 97,83 %
22.03.2017 03:30 2,0 C 2,2 C -1,1 C 86 % 0 lf 1013,2 hPa 0,0 l/m 0 min 0 min 5 W/m 6,3 km/h (2 Bft) 97,87 %
22.03.2017 03:32 2,0 C 1,7 C -1,1 C 86 % 0 lf 1013,2 hPa 0,0 l/m 0 min 0 min 5 W/m 6,3 km/h (2 Bft) 100,00 %
22.03.2017 03:34 1,9 C 1,7 C -1,1 C 86 % 0 lf 1013,2 hPa 0,0 l/m 0 min 0 min 5 W/m 6,3 km/h (2 Bft) 97,87 %
22.03.2017 03:36 1,9 C 1,7 C -1,1 C 86 % 0 lf 1013,2 hPa 0,0 l/m 0 min 0 min 5 W/m 6,3 km/h (2 Bft) 93,62 %
22.03.2017 03:38 1,9 C 1,7 C -1,1 C 86 % 0 lf 1013,2 hPa 0,0 l/m 0 min 0 min 0 W/m 6,3 km/h (2 Bft) 95,74 %
22.03.2017 03:40 1,9 C 1,7 C -1,1 C 86 % 0 lf 1013,3 hPa 0,0 l/m 0 min 0 min 0 W/m 6,3 km/h (2 Bft) 97,83 %
22.03.2017 03:42 1,9 C 1,7 C -1,1 C 86 % 0 lf 1013,3 hPa 0,0 l/m 0 min 0 min 0 W/m 6,3 km/h (2 Bft) 95,74 %
22.03.2017 03:44 1,9 C 1,7 C -1,1 C 86 % 0 lf 1013,3 hPa 0,0 l/m 0 min 0 min 0 W/m 6,3 km/h (2 Bft) 100,00 %
22.03.2017 03:46 1,9 C 1,7 C -1,1 C 86 % 0 lf 1013,4 hPa 0,0 l/m 0 min 0 min 0 W/m 6,3 km/h (2 Bft) 95,74 %
22.03.2017 03:48 1,8 C 1,7 C -1,1 C 86 % 0 lf 1013,4 hPa 0,0 l/m 0 min 0 min 0 W/m 6,3 km/h (2 Bft) 95,74 %
22.03.2017 03:50 1,8 C 1,7 C -1,1 C 86 % 0 lf 1013,3 hPa 0,0 l/m 0 min 0 min 0 W/m 6,3 km/h (2 Bft) 97,87 %
22.03.2017 03:52 1,8 C 1,7 C -1,1 C 86 % 0 lf 1013,4 hPa 0,0 l/m 0 min 0 min 0 W/m 6,3 km/h (2 Bft) 95,65 %
22.03.2017 03:54 1,8 C 1,7 C -1,1 C 86 % 0 lf 1013,4 hPa 0,0 l/m 0 min 0 min 0 W/m 8,4 km/h (2 Bft) 93,62 %
22.03.2017 03:56 1,8 C 1,7 C -1,1 C 86 % 0 lf 1013,4 hPa 0,0 l/m 0 min 0 min 0 W/m 8,4 km/h (2 Bft) 95,74 %
22.03.2017 03:58 1,8 C 1,7 C -1,1 C 86 % 0 lf 1013,4 hPa 0,0 l/m 0 min 0 min 0 W/m 8,4 km/h (2 Bft) 95,74 %
22.03.2017 04:00 1,7 C 1,7 C -1,1 C 86 % 0 lf 1013,4 hPa 0,0 l/m 0 min 0 min 0 W/m 6,3 km/h (2 Bft) 97,87 %
22.03.2017 04:05 1,7 C 1,7 C -1,1 C 87 % 0 lf 1013,5 hPa 0,0 l/m 0 min 0 min 0 W/m 6,3 km/h (2 Bft) 96,61 %
22.03.2017 04:06 1,7 C 1,7 C -1,1 C 87 % 0 lf 1013,5 hPa 0,0 l/m 0 min 0 min 0 W/m 4,2 km/h (1 Bft) 100,00 %
22.03.2017 04:08 1,7 C 1,7 C -1,1 C 87 % 0 lf 1013,4 hPa 0,0 l/m 0 min 0 min 0 W/m 4,2 km/h (1 Bft) 93,62 %
22.03.2017 04:10 1,7 C 1,7 C -1,1 C 87 % 0 lf 1013,5 hPa 0,0 l/m 0 min 0 min 0 W/m 6,3 km/h (2 Bft) 93,62 %
22.03.2017 04:12 1,6 C 1,1 C -1,1 C 87 % 0 lf 1013,5 hPa 0,0 l/m 0 min 0 min 0 W/m 6,3 km/h (2 Bft) 97,87 %
22.03.2017 04:14 1,6 C 1,1 C -1,7 C 87 % 0 lf 1013,5 hPa 0,0 l/m 0 min 0 min 0 W/m 6,3 km/h (2 Bft) 100,00 %
22.03.2017 04:16 1,6 C 1,1 C -1,7 C 87 % 0 lf 1013,5 hPa 0,0 l/m 0 min 0 min 0 W/m 6,3 km/h (2 Bft) 97,87 %
22.03.2017 04:18 1,6 C 1,1 C -1,7 C 87 % 0 lf 1013,5 hPa 0,0 l/m 0 min 0 min 5 W/m 2,1 km/h (1 Bft) 97,87 %
22.03.2017 04:20 1,6 C 1,1 C -1,7 C 87 % 0 lf 1013,5 hPa 0,0 l/m 0 min 0 min 5 W/m 6,3 km/h (2 Bft) 95,74 %
22.03.2017 04:22 1,6 C 1,1 C -1,7 C 87 % 0 lf 1013,5 hPa 0,0 l/m 0 min 0 min 5 W/m 6,3 km/h (2 Bft) 89,36 %
22.03.2017 04:24 1,5 C 1,1 C -1,7 C 87 % 0 lf 1013,5 hPa 0,0 l/m 0 min 0 min 5 W/m 6,3 km/h (2 Bft) 93,62 %
22.03.2017 04:26 1,5 C 1,1 C -1,7 C 87 % 0 lf 1013,6 hPa 0,0 l/m 0 min 0 min 5 W/m 6,3 km/h (2 Bft) 93,48 %
22.03.2017 04:28 1,5 C 1,1 C -1,7 C 87 % 0 lf 1013,6 hPa 0,0 l/m 0 min 0 min 5 W/m 4,2 km/h (1 Bft) 95,74 %
22.03.2017 04:30 1,4 C 1,1 C -1,7 C 87 % 0 lf 1013,6 hPa 0,0 l/m 0 min 0 min 5 W/m 4,2 km/h (1 Bft) 89,36 %
22.03.2017 04:32 1,4 C 1,1 C -1,7 C 87 % 0 lf 1013,6 hPa 0,0 l/m 0 min 0 min 5 W/m 4,2 km/h (1 Bft) 95,74 %
22.03.2017 04:34 1,4 C 1,1 C -1,7 C 87 % 0 lf 1013,6 hPa 0,0 l/m 0 min 0 min 5 W/m 6,3 km/h (2 Bft) 91,49 %
22.03.2017 04:36 1,4 C 1,1 C -1,7 C 87 % 0 lf 1013,6 hPa 0,0 l/m 0 min 0 min 5 W/m 6,3 km/h (2 Bft) 95,74 %
22.03.2017 04:38 1,4 C 1,1 C -1,7 C 87 % 0 lf 1013,6 hPa 0,0 l/m 0 min 0 min 5 W/m 6,3 km/h (2 Bft) 91,30 %
22.03.2017 04:40 1,3 C 1,1 C -1,7 C 87 % 0 lf 1013,7 hPa 0,0 l/m 0 min 0 min 5 W/m 6,3 km/h (2 Bft) 95,74 %
22.03.2017 04:42 1,3 C 1,1 C -1,7 C 87 % 0 lf 1013,6 hPa 0,0 l/m 0 min 0 min 5 W/m 6,3 km/h (2 Bft) 93,62 %
22.03.2017 04:44 1,3 C 1,1 C -1,1 C 87 % 0 lf 1013,6 hPa 0,0 l/m 0 min 0 min 5 W/m 6,3 km/h (2 Bft) 91,49 %
22.03.2017 04:46 1,3 C 1,1 C -1,7 C 87 % 0 lf 1013,6 hPa 0,0 l/m 0 min 0 min 5 W/m 6,3 km/h (2 Bft) 85,11 %
22.03.2017 04:48 1,3 C 0,6 C -1,7 C 87 % 0 lf 1013,6 hPa 0,0 l/m 0 min 0 min 5 W/m 6,3 km/h (2 Bft) 93,62 %
22.03.2017 04:50 1,2 C 0,6 C -1,7 C 87 % 0 lf 1013,6 hPa 0,0 l/m 0 min 0 min 5 W/m 6,3 km/h (2 Bft) 95,65 %
22.03.2017 04:52 1,2 C 0,6 C -1,7 C 87 % 0 lf 1013,5 hPa 0,0 l/m 0 min 0 min 5 W/m 6,3 km/h (2 Bft) 87,23 %
22.03.2017 04:54 1,2 C 0,6 C -1,7 C 87 % 0 lf 1013,5 hPa 0,0 l/m 0 min 0 min 5 W/m 6,3 km/h (2 Bft) 91,49 %
22.03.2017 04:56 1,2 C 0,6 C -1,7 C 87 % 0 lf 1013,5 hPa 0,0 l/m 0 min 0 min 5 W/m 6,3 km/h (2 Bft) 91,49 %
22.03.2017 04:58 1,2 C 0,6 C -1,7 C 87 % 0 lf 1013,5 hPa 0,0 l/m 0 min 0 min 4 W/m 8,4 km/h (2 Bft) 95,74 %
22.03.2017 05:00 1,1 C 0,0 C -1,7 C 87 % 0 lf 1013,4 hPa 0,0 l/m 0 min 0 min 0 W/m 6,3 km/h (2 Bft) 95,74 %
22.03.2017 05:02 1,1 C 0,6 C -1,7 C 87 % 0 lf 1013,5 hPa 0,0 l/m 0 min 0 min 0 W/m 8,4 km/h (2 Bft) 86,96 %
22.03.2017 05:04 1,1 C 0,6 C -1,7 C 87 % 0 lf 1013,4 hPa 0,0 l/m 0 min 0 min 0 W/m 8,4 km/h (2 Bft) 97,87 %
22.03.2017 05:06 1,0 C 0,6 C -1,7 C 87 % 0 lf 1013,5 hPa 0,0 l/m 0 min 0 min 0 W/m 8,4 km/h (2 Bft) 95,74 %
22.03.2017 05:08 1,0 C 0,6 C -1,7 C 87 % 0 lf 1013,4 hPa 0,0 l/m 0 min 0 min 0 W/m 6,3 km/h (2 Bft) 95,74 %
22.03.2017 05:10 1,0 C 0,6 C -1,7 C 87 % 0 lf 1013,4 hPa 0,0 l/m 0 min 0 min 0 W/m 6,3 km/h (2 Bft) 97,87 %
22.03.2017 05:12 0,9 C 0,6 C -1,7 C 88 % 0 lf 1013,4 hPa 0,0 l/m 0 min 0 min 0 W/m 6,3 km/h (2 Bft) 100,00 %
22.03.2017 05:14 0,9 C 0,6 C -1,7 C 88 % 0 lf 1013,4 hPa 0,0 l/m 0 min 0 min 0 W/m 6,3 km/h (2 Bft) 100,00 %
22.03.2017 05:16 0,9 C 0,6 C -1,7 C 88 % 0 lf 1013,4 hPa 0,0 l/m 0 min 0 min 0 W/m 8,4 km/h (2 Bft) 100,00 %
22.03.2017 05:18 0,9 C 0,6 C -1,7 C 88 % 0 lf 1013,4 hPa 0,0 l/m 0 min 0 min 0 W/m 8,4 km/h (2 Bft) 95,74 %
22.03.2017 05:20 0,9 C 0,6 C -1,7 C 88 % 0 lf 1013,4 hPa 0,0 l/m 0 min 0 min 0 W/m 8,4 km/h (2 Bft) 93,62 %
22.03.2017 05:22 0,8 C 0,6 C -1,7 C 88 % 0 lf 1013,4 hPa 0,0 l/m 0 min 0 min 0 W/m 10,5 km/h (2 Bft) 93,62 %
22.03.2017 05:24 0,8 C 0,6 C -1,7 C 88 % 0 lf 1013,4 hPa 0,0 l/m 0 min 0 min 0 W/m 4,2 km/h (1 Bft) 91,30 %
22.03.2017 05:26 0,8 C 0,6 C -1,7 C 88 % 0 lf 1013,3 hPa 0,0 l/m 0 min 0 min 0 W/m 6,3 km/h (2 Bft) 95,74 %
22.03.2017 05:28 0,8 C 0,6 C -1,7 C 89 % 0 lf 1013,4 hPa 0,0 l/m 0 min 0 min 0 W/m 6,3 km/h (2 Bft) 95,74 %
22.03.2017 05:30 0,8 C 0,6 C -1,7 C 89 % 0 lf 1013,4 hPa 0,0 l/m 0 min 0 min 0 W/m 8,4 km/h (2 Bft) 95,74 %
22.03.2017 05:32 0,7 C 0,6 C -1,7 C 89 % 0 lf 1013,4 hPa 0,0 l/m 0 min 0 min 0 W/m 6,3 km/h (2 Bft) 95,74 %
22.03.2017 05:34 0,7 C 0,6 C -1,7 C 89 % 0 lf 1013,3 hPa 0,0 l/m 0 min 0 min 0 W/m 6,3 km/h (2 Bft) 93,62 %
22.03.2017 05:36 0,7 C 0,6 C -1,7 C 89 % 0 lf 1013,3 hPa 0,0 l/m 0 min 0 min 0 W/m 6,3 km/h (2 Bft) 93,48 %
22.03.2017 05:38 0,7 C 0,6 C -1,7 C 89 % 0 lf 1013,4 hPa 0,0 l/m 0 min 0 min 0 W/m 4,2 km/h (1 Bft) 89,36 %
22.03.2017 05:40 0,7 C 0,6 C -1,7 C 89 % 0 lf 1013,4 hPa 0,0 l/m 0 min 0 min 0 W/m 4,2 km/h (1 Bft) 93,62 %
22.03.2017 05:42 0,7 C 0,6 C -1,7 C 89 % 0 lf 1013,4 hPa 0,0 l/m 0 min 0 min 0 W/m 4,2 km/h (1 Bft) 93,62 %
22.03.2017 05:44 0,6 C 0,0 C -1,7 C 89 % 0 lf 1013,4 hPa 0,0 l/m 0 min 0 min 0 W/m 2,1 km/h (1 Bft) 95,74 %
22.03.2017 05:46 0,6 C 0,0 C -2,2 C 89 % 0 lf 1013,4 hPa 0,0 l/m 0 min 0 min 0 W/m 6,3 km/h (2 Bft) 93,62 %
22.03.2017 05:48 0,6 C 0,0 C -2,2 C 89 % 1 lf 1013,4 hPa 0,0 l/m 0 min 0 min 0 W/m 6,3 km/h (2 Bft) 95,65 %
22.03.2017 05:50 0,6 C 0,0 C -2,2 C 89 % 1 lf 1013,3 hPa 0,0 l/m 0 min 0 min 0 W/m 4,2 km/h (1 Bft) 89,36 %
22.03.2017 05:52 0,6 C 0,0 C -2,2 C 89 % 1 lf 1013,3 hPa 0,0 l/m 0 min 0 min 0 W/m 4,2 km/h (1 Bft) 95,74 %
22.03.2017 05:54 0,5 C 0,0 C -2,2 C 89 % 1 lf 1013,3 hPa 0,0 l/m 0 min 0 min 0 W/m 4,2 km/h (1 Bft) 95,74 %
22.03.2017 05:56 0,5 C 0,0 C -2,2 C 89 % 1 lf 1013,3 hPa 0,0 l/m 0 min 0 min 0 W/m 6,3 km/h (2 Bft) 91,49 %
22.03.2017 05:58 0,5 C 0,0 C -2,2 C 89 % 1 lf 1013,4 hPa 0,0 l/m 0 min 0 min 0 W/m 4,2 km/h (1 Bft) 95,74 %
22.03.2017 06:00 0,5 C 0,0 C -2,2 C 89 % 1 lf 1013,4 hPa 0,0 l/m 0 min 0 min 0 W/m 6,3 km/h (2 Bft) 97,83 %
22.03.2017 06:02 0,5 C -0,6 C -2,2 C 89 % 1 lf 1013,3 hPa 0,0 l/m 0 min 0 min 0 W/m 6,3 km/h (2 Bft) 95,74 %
22.03.2017 06:05 0,5 C 0,0 C -2,2 C 89 % 1 lf 1013,3 hPa 0,0 l/m 0 min 0 min 0 W/m 4,2 km/h (1 Bft) 95,74 %
22.03.2017 06:06 0,4 C 0,0 C -2,2 C 89 % 1 lf 1013,3 hPa 0,0 l/m 0 min 0 min 0 W/m 4,2 km/h (1 Bft) 95,74 %
22.03.2017 06:08 0,4 C 0,0 C -2,2 C 89 % 1 lf 1013,4 hPa 0,0 l/m 0 min 0 min 0 W/m 4,2 km/h (1 Bft) 95,74 %
22.03.2017 06:10 0,4 C 0,0 C -2,2 C 89 % 1 lf 1013,3 hPa 0,0 l/m 0 min 0 min 0 W/m 4,2 km/h (1 Bft) 95,74 %
22.03.2017 06:12 0,4 C -0,6 C -2,2 C 90 % 1 lf 1013,3 hPa 0,0 l/m 0 min 0 min 0 W/m 4,2 km/h (1 Bft) 95,74 %
22.03.2017 06:13 0,4 C -0,6 C -2,2 C 90 % 1 lf 1013,3 hPa 0,0 l/m 0 min 0 min 0 W/m 0,0 km/h (0 Bft) 100,00 %
22.03.2017 06:14 0,3 C -0,6 C -2,2 C 90 % 1 lf 1013,3 hPa 0,0 l/m 0 min 0 min 0 W/m 0,0 km/h (0 Bft) 95,65 %
22.03.2017 06:16 0,3 C -0,6 C -2,2 C 90 % 1 lf 1013,3 hPa 0,0 l/m 0 min 0 min 0 W/m 0,0 km/h (0 Bft) 97,14 %
22.03.2017 06:18 0,3 C -1,1 C -2,2 C 90 % 1 lf 1013,3 hPa 0,0 l/m 0 min 0 min 4 W/m 0,0 km/h (0 Bft) 95,74 %
22.03.2017 06:20 0,3 C -1,1 C -2,8 C 90 % 1 lf 1013,4 hPa 0,0 l/m 0 min 0 min 5 W/m 0,0 km/h (0 Bft) 95,65 %
22.03.2017 06:22 0,2 C -1,1 C -2,8 C 90 % 1 lf 1013,4 hPa 0,0 l/m 0 min 0 min 5 W/m 0,0 km/h (0 Bft) 97,87 %
22.03.2017 06:24 0,2 C -1,1 C -2,8 C 90 % 1 lf 1013,4 hPa 0,0 l/m 0 min 0 min 5 W/m 0,0 km/h (0 Bft) 95,74 %
22.03.2017 06:26 0,2 C -1,1 C -2,8 C 90 % 1 lf 1013,4 hPa 0,0 l/m 0 min 0 min 6 W/m 0,0 km/h (0 Bft) 95,74 %
22.03.2017 06:28 0,2 C -1,1 C -2,8 C 90 % 1 lf 1013,4 hPa 0,0 l/m 0 min 0 min 7 W/m 0,0 km/h (0 Bft) 97,87 %
22.03.2017 06:30 0,2 C -1,1 C -2,8 C 90 % 1 lf 1013,4 hPa 0,0 l/m 0 min 0 min 7 W/m 0,0 km/h (0 Bft) 95,74 %
22.03.2017 06:32 0,1 C -1,1 C -2,8 C 90 % 1 lf 1013,4 hPa 0,0 l/m 0 min 0 min 7 W/m 2,1 km/h (1 Bft) 97,83 %
22.03.2017 06:34 0,1 C -1,7 C -2,8 C 90 % 1 lf 1013,4 hPa 0,0 l/m 0 min 0 min 9 W/m 2,1 km/h (1 Bft) 95,74 %
22.03.2017 06:36 0,1 C -1,1 C -2,8 C 90 % 1 lf 1013,4 hPa 0,0 l/m 0 min 0 min 10 W/m 2,1 km/h (1 Bft) 95,74 %
22.03.2017 06:38 0,0 C -0,6 C -2,8 C 90 % 2 lf 1013,4 hPa 0,0 l/m 0 min 0 min 11 W/m 2,1 km/h (1 Bft) 97,87 %
22.03.2017 06:40 0,0 C -0,6 C -2,8 C 90 % 2 lf 1013,5 hPa 0,0 l/m 0 min 0 min 12 W/m 4,2 km/h (1 Bft) 97,87 %
22.03.2017 06:42 -0,1 C -0,6 C -2,8 C 90 % 2 lf 1013,4 hPa 0,0 l/m 0 min 0 min 13 W/m 4,2 km/h (1 Bft) 95,74 %
22.03.2017 06:44 -0,1 C 0,0 C -2,8 C 90 % 2 lf 1013,4 hPa 0,0 l/m 0 min 0 min 14 W/m 2,1 km/h (1 Bft) 91,30 %
22.03.2017 06:46 -0,1 C 0,0 C -2,2 C 90 % 2 lf 1013,4 hPa 0,0 l/m 0 min 0 min 17 W/m 4,2 km/h (1 Bft) 95,74 %
22.03.2017 06:48 -0,1 C 0,0 C -2,2 C 90 % 2 lf 1013,4 hPa 0,0 l/m 0 min 0 min 18 W/m 4,2 km/h (1 Bft) 93,62 %
22.03.2017 06:50 -0,1 C 0,0 C -2,2 C 90 % 2 lf 1013,4 hPa 0,0 l/m 0 min 0 min 19 W/m 4,2 km/h (1 Bft) 97,87 %
22.03.2017 06:52 -0,2 C 0,0 C -2,2 C 90 % 2 lf 1013,4 hPa 0,0 l/m 2 min 0 min 21 W/m 6,3 km/h (2 Bft) 97,87 %
22.03.2017 06:54 -0,2 C 0,0 C -2,2 C 90 % 2 lf 1013,4 hPa 0,0 l/m 0 min 0 min 22 W/m 4,2 km/h (1 Bft) 95,74 %
22.03.2017 06:56 -0,2 C 0,0 C -2,2 C 90 % 2 lf 1013,4 hPa 0,0 l/m 0 min 0 min 24 W/m 6,3 km/h (2 Bft) 97,83 %
22.03.2017 06:58 -0,2 C 0,0 C -2,2 C 90 % 2 lf 1013,4 hPa 0,0 l/m 0 min 0 min 26 W/m 4,2 km/h (1 Bft) 93,62 %
22.03.2017 07:00 -0,2 C 0,0 C -2,2 C 90 % 2 lf 1013,4 hPa 0,0 l/m 0 min 0 min 29 W/m 4,2 km/h (1 Bft) 91,49 %
22.03.2017 07:02 -0,2 C 0,6 C -2,2 C 90 % 2 lf 1013,3 hPa 0,0 l/m 0 min 0 min 33 W/m 4,2 km/h (1 Bft) 93,62 %
22.03.2017 07:04 -0,2 C 0,6 C -1,7 C 90 % 2 lf 1013,4 hPa 0,0 l/m 0 min 0 min 35 W/m 4,2 km/h (1 Bft) 95,74 %
22.03.2017 07:06 -0,2 C 0,6 C -1,7 C 90 % 2 lf 1013,3 hPa 0,0 l/m 2 min 0 min 39 W/m 6,3 km/h (2 Bft) 95,74 %
22.03.2017 07:08 -0,2 C 0,6 C -1,7 C 90 % 2 lf 1013,3 hPa 0,0 l/m 2 min 0 min 46 W/m 6,3 km/h (2 Bft) 97,83 %
22.03.2017 07:10 -0,2 C 1,1 C -1,7 C 91 % 2 lf 1013,4 hPa 0,0 l/m 2 min 0 min 49 W/m 6,3 km/h (2 Bft) 95,74 %
22.03.2017 07:12 -0,1 C 1,1 C -1,1 C 91 % 2 lf 1013,3 hPa 0,0 l/m 0 min 0 min 44 W/m 6,3 km/h (2 Bft) 95,74 %
22.03.2017 07:14 -0,1 C 1,1 C -1,1 C 91 % 2 lf 1013,3 hPa 0,0 l/m 0 min 0 min 46 W/m 6,3 km/h (2 Bft) 95,74 %
22.03.2017 07:16 -0,1 C 1,1 C -1,1 C 91 % 2 lf 1013,3 hPa 0,0 l/m 0 min 0 min 47 W/m 8,4 km/h (2 Bft) 97,87 %
22.03.2017 07:18 0,0 C 1,1 C -1,1 C 91 % 2 lf 1013,3 hPa 0,0 l/m 0 min 0 min 50 W/m 6,3 km/h (2 Bft) 91,49 %
22.03.2017 07:20 0,0 C 1,1 C -1,1 C 91 % 2 lf 1013,3 hPa 0,0 l/m 0 min 0 min 54 W/m 6,3 km/h (2 Bft) 95,65 %
22.03.2017 07:22 0,1 C 1,1 C -1,1 C 91 % 1 lf 1013,4 hPa 0,0 l/m 0 min 0 min 59 W/m 8,4 km/h (2 Bft) 95,74 %
22.03.2017 07:24 0,1 C 1,1 C -1,1 C 91 % 1 lf 1013,4 hPa 0,0 l/m 2 min 0 min 63 W/m 6,3 km/h (2 Bft) 97,87 %
22.03.2017 07:26 0,1 C 1,7 C -1,1 C 92 % 1 lf 1013,4 hPa 0,0 l/m 2 min 0 min 78 W/m 6,3 km/h (2 Bft) 97,87 %
22.03.2017 07:28 0,1 C 1,7 C -1,1 C 92 % 1 lf 1013,4 hPa 0,0 l/m 2 min 0 min 82 W/m 4,2 km/h (1 Bft) 95,74 %
22.03.2017 07:30 0,2 C 1,7 C -1,1 C 92 % 1 lf 1013,4 hPa 0,0 l/m 2 min 0 min 97 W/m 4,2 km/h (1 Bft) 95,65 %
22.03.2017 07:32 0,2 C 1,7 C -0,6 C 92 % 1 lf 1013,3 hPa 0,0 l/m 2 min 0 min 105 W/m 8,4 km/h (2 Bft) 97,87 %
22.03.2017 07:34 0,2 C 1,7 C -0,6 C 92 % 1 lf 1013,3 hPa 0,0 l/m 2 min 0 min 114 W/m 6,3 km/h (2 Bft) 95,74 %
22.03.2017 07:36 0,3 C 2,2 C -0,6 C 92 % 1 lf 1013,4 hPa 0,0 l/m 2 min 0 min 113 W/m 6,3 km/h (2 Bft) 91,49 %
22.03.2017 07:38 0,3 C 2,2 C -0,6 C 92 % 1 lf 1013,3 hPa 0,0 l/m 2 min 0 min 121 W/m 6,3 km/h (2 Bft) 95,74 %
22.03.2017 07:40 0,4 C 2,2 C 0,0 C 92 % 0 lf 1013,4 hPa 0,0 l/m 2 min 0 min 108 W/m 4,2 km/h (1 Bft) 93,62 %
22.03.2017 07:42 0,5 C 2,2 C 0,0 C 93 % 0 lf 1013,4 hPa 0,0 l/m 2 min 0 min 119 W/m 6,3 km/h (2 Bft) 93,48 %
22.03.2017 07:44 0,5 C 2,2 C 0,0 C 92 % 0 lf 1013,4 hPa 0,0 l/m 2 min 0 min 150 W/m 6,3 km/h (2 Bft) 93,62 %
22.03.2017 07:46 0,5 C 3,3 C 0,0 C 93 % 0 lf 1013,4 hPa 0,0 l/m 2 min 0 min 162 W/m 8,4 km/h (2 Bft) 93,62 %
22.03.2017 07:48 0,6 C 5,0 C 0,0 C 93 % 0 lf 1013,4 hPa 0,0 l/m 2 min 0 min 163 W/m 6,3 km/h (2 Bft) 91,49 %
22.03.2017 07:50 0,7 C 5,6 C 0,6 C 93 % 0 lf 1013,4 hPa 0,0 l/m 2 min 0 min 152 W/m 8,4 km/h (2 Bft) 93,62 %
22.03.2017 07:52 0,8 C 5,6 C 0,6 C 93 % 0 lf 1013,4 hPa 0,0 l/m 2 min 0 min 155 W/m 10,5 km/h (2 Bft) 95,74 %
22.03.2017 07:54 0,9 C 5,6 C 0,6 C 93 % 0 lf 1013,4 hPa 0,0 l/m 2 min 0 min 174 W/m 10,5 km/h (2 Bft) 97,83 %
22.03.2017 07:56 1,1 C 5,6 C 0,6 C 93 % 0 lf 1013,3 hPa 0,0 l/m 2 min 0 min 164 W/m 10,5 km/h (2 Bft) 91,49 %
22.03.2017 07:58 1,2 C 5,6 C 0,6 C 93 % 0 lf 1013,4 hPa 0,0 l/m 2 min 0 min 159 W/m 14,6 km/h (3 Bft) 97,87 %
22.03.2017 08:00 1,3 C 6,1 C 1,1 C 94 % 0 lf 1013,4 hPa 0,0 l/m 2 min 0 min 188 W/m 14,6 km/h (3 Bft) 93,62 %
22.03.2017 08:02 1,4 C 6,7 C 1,1 C 94 % 0 lf 1013,4 hPa 0,0 l/m 2 min 0 min 211 W/m 16,7 km/h (3 Bft) 97,87 %
22.03.2017 08:04 1,5 C 6,7 C 1,1 C 94 % 0 lf 1013,5 hPa 0,0 l/m 2 min 0 min 219 W/m 14,6 km/h (3 Bft) 93,62 %
22.03.2017 08:06 1,7 C 6,1 C 1,1 C 94 % 0 lf 1013,5 hPa 0,0 l/m 2 min 0 min 212 W/m 16,7 km/h (3 Bft) 97,83 %
22.03.2017 08:08 1,8 C 6,1 C 1,7 C 94 % 0 lf 1013,5 hPa 0,0 l/m 2 min 0 min 210 W/m 14,6 km/h (3 Bft) 97,87 %
22.03.2017 08:10 1,9 C 5,6 C 1,7 C 94 % 0 lf 1013,5 hPa 0,0 l/m 2 min 0 min 178 W/m 16,7 km/h (3 Bft) 95,74 %
22.03.2017 08:12 2,0 C 5,6 C 1,7 C 94 % 0 lf 1013,5 hPa 0,0 l/m 2 min 0 min 150 W/m 14,6 km/h (3 Bft) 93,62 %
22.03.2017 08:14 2,1 C 5,6 C 1,7 C 94 % 0 lf 1013,5 hPa 0,0 l/m 2 min 0 min 191 W/m 16,7 km/h (3 Bft) 95,74 %
22.03.2017 08:16 2,2 C 5,6 C 1,7 C 94 % 0 lf 1013,6 hPa 0,0 l/m 2 min 0 min 160 W/m 16,7 km/h (3 Bft) 97,87 %
22.03.2017 08:18 2,2 C 5,0 C 1,7 C 94 % 0 lf 1013,6 hPa 0,0 l/m 2 min 0 min 150 W/m 12,6 km/h (3 Bft) 93,48 %
22.03.2017 08:20 2,3 C 5,0 C 1,7 C 94 % 0 lf 1013,6 hPa 0,0 l/m 2 min 0 min 158 W/m 18,8 km/h (3 Bft) 100,00 %
22.03.2017 08:22 2,3 C 5,0 C 1,7 C 94 % 0 lf 1013,6 hPa 0,0 l/m 2 min 0 min 172 W/m 14,6 km/h (3 Bft) 95,74 %
22.03.2017 08:24 2,4 C 5,6 C 1,7 C 93 % 0 lf 1013,6 hPa 0,0 l/m 2 min 0 min 166 W/m 14,6 km/h (3 Bft) 97,87 %
22.03.2017 08:26 2,4 C 5,0 C 1,7 C 93 % 0 lf 1013,6 hPa 0,0 l/m 2 min 0 min 153 W/m 16,7 km/h (3 Bft) 100,00 %
22.03.2017 08:28 2,5 C 5,6 C 1,7 C 93 % 0 lf 1013,6 hPa 0,0 l/m 2 min 0 min 152 W/m 10,5 km/h (2 Bft) 95,65 %
22.03.2017 08:30 2,6 C 5,6 C 1,7 C 93 % 0 lf 1013,6 hPa 0,0 l/m 2 min 0 min 178 W/m 8,4 km/h (2 Bft) 97,87 %
22.03.2017 08:32 2,7 C 6,1 C 2,2 C 93 % 0 lf 1013,7 hPa 0,0 l/m 2 min 0 min 198 W/m 16,7 km/h (3 Bft) 100,00 %
22.03.2017 08:34 2,7 C 6,1 C 2,2 C 93 % 0 lf 1013,7 hPa 0,0 l/m 2 min 0 min 197 W/m 16,7 km/h (3 Bft) 100,00 %
22.03.2017 08:37 2,8 C 7,8 C 2,2 C 92 % 0 lf 1013,6 hPa 0,0 l/m 2 min 0 min 270 W/m 16,7 km/h (3 Bft) 95,71 %
22.03.2017 08:38 2,8 C 8,3 C 2,8 C 92 % 0 lf 1013,6 hPa 0,0 l/m 1 min 0 min 271 W/m 12,6 km/h (3 Bft) 100,00 %
22.03.2017 08:40 2,9 C 8,3 C 2,8 C 92 % 0 lf 1013,6 hPa 0,0 l/m 2 min 0 min 276 W/m 16,7 km/h (3 Bft) 100,00 %
22.03.2017 08:42 3,0 C 8,9 C 2,8 C 92 % 0 lf 1013,6 hPa 0,0 l/m 2 min 0 min 270 W/m 18,8 km/h (3 Bft) 95,65 %
22.03.2017 08:44 3,1 C 9,4 C 3,3 C 92 % 0 lf 1013,6 hPa 0,0 l/m 2 min 0 min 326 W/m 16,7 km/h (3 Bft) 95,74 %
22.03.2017 08:46 3,3 C 10,0 C 3,9 C 92 % 0 lf 1013,6 hPa 0,0 l/m 2 min 0 min 332 W/m 16,7 km/h (3 Bft) 100,00 %
22.03.2017 08:48 3,4 C 8,9 C 3,9 C 92 % 0 lf 1013,6 hPa 0,0 l/m 2 min 0 min 335 W/m 14,6 km/h (3 Bft) 97,87 %
22.03.2017 08:50 3,6 C 9,4 C 3,9 C 92 % 0 lf 1013,6 hPa 0,0 l/m 2 min 0 min 341 W/m 14,6 km/h (3 Bft) 97,87 %
22.03.2017 08:52 3,7 C 8,9 C 4,4 C 92 % 0 lf 1013,6 hPa 0,0 l/m 2 min 0 min 345 W/m 16,7 km/h (3 Bft) 100,00 %
22.03.2017 08:54 3,8 C 10,0 C 4,4 C 91 % 0 lf 1013,6 hPa 0,0 l/m 2 min 0 min 351 W/m 14,6 km/h (3 Bft) 100,00 %
22.03.2017 08:56 3,9 C 10,0 C 5,0 C 91 % 0 lf 1013,6 hPa 0,0 l/m 2 min 0 min 354 W/m 18,8 km/h (3 Bft) 95,74 %
22.03.2017 08:58 4,1 C 9,4 C 5,6 C 91 % 0 lf 1013,6 hPa 0,0 l/m 2 min 0 min 360 W/m 16,7 km/h (3 Bft) 95,74 %
22.03.2017 09:00 4,2 C 10,6 C 5,6 C 90 % 0 lf 1013,7 hPa 0,0 l/m 2 min 0 min 365 W/m 16,7 km/h (3 Bft) 95,74 %
22.03.2017 09:02 4,3 C 9,4 C 6,1 C 90 % 0 lf 1013,6 hPa 0,0 l/m 2 min 0 min 369 W/m 16,7 km/h (3 Bft) 100,00 %
22.03.2017 09:04 4,4 C 10,0 C 6,7 C 89 % 0 lf 1013,6 hPa 0,0 l/m 2 min 0 min 372 W/m 12,6 km/h (3 Bft) 100,00 %
22.03.2017 09:06 4,5 C 10,0 C 7,8 C 88 % 0 lf 1013,7 hPa 0,0 l/m 2 min 0 min 377 W/m 14,6 km/h (3 Bft) 95,74 %
22.03.2017 09:08 4,7 C 10,0 C 7,8 C 88 % 0 lf 1013,7 hPa 0,0 l/m 2 min 0 min 381 W/m 14,6 km/h (3 Bft) 95,74 %
22.03.2017 09:10 4,7 C 10,0 C 8,3 C 87 % 0 lf 1013,6 hPa 0,0 l/m 2 min 0 min 389 W/m 16,7 km/h (3 Bft) 97,87 %
22.03.2017 09:12 4,9 C 11,7 C 8,9 C 87 % 0 lf 1013,7 hPa 0,0 l/m 2 min 0 min 396 W/m 12,6 km/h (3 Bft) 100,00 %
22.03.2017 09:14 5,0 C 12,2 C 9,4 C 87 % 0 lf 1013,7 hPa 0,0 l/m 2 min 0 min 408 W/m 14,6 km/h (3 Bft) 100,00 %
22.03.2017 09:16 5,1 C 12,8 C 10,0 C 86 % 0 lf 1013,6 hPa 0,0 l/m 2 min 0 min 427 W/m 6,3 km/h (2 Bft) 97,83 %
22.03.2017 09:18 5,3 C 14,4 C 10,6 C 86 % 0 lf 1013,6 hPa 0,0 l/m 2 min 0 min 508 W/m 10,5 km/h (2 Bft) 95,74 %
22.03.2017 09:20 5,4 C 12,8 C 11,1 C 86 % 0 lf 1013,6 hPa 0,0 l/m 2 min 0 min 434 W/m 14,6 km/h (3 Bft) 95,74 %
22.03.2017 09:22 5,6 C 12,8 C 10,6 C 85 % 0 lf 1013,6 hPa 0,0 l/m 2 min 0 min 441 W/m 18,8 km/h (3 Bft) 95,74 %
22.03.2017 09:24 5,7 C 11,1 C 10,6 C 84 % 0 lf 1013,6 hPa 0,0 l/m 2 min 0 min 539 W/m 18,8 km/h (3 Bft) 95,74 %
22.03.2017 09:26 5,8 C 11,7 C 10,6 C 83 % 0 lf 1013,7 hPa 0,0 l/m 2 min 0 min 450 W/m 16,7 km/h (3 Bft) 93,62 %
22.03.2017 09:28 5,9 C 12,2 C 10,0 C 82 % 0 lf 1013,7 hPa 0,0 l/m 2 min 0 min 454 W/m 18,8 km/h (3 Bft) 95,65 %
22.03.2017 09:30 6,1 C 13,3 C 10,6 C 82 % 0 lf 1013,7 hPa 0,0 l/m 2 min 0 min 458 W/m 16,7 km/h (3 Bft) 93,62 %
22.03.2017 09:32 6,2 C 13,3 C 10,6 C 81 % 0 lf 1013,7 hPa 0,0 l/m 2 min 0 min 558 W/m 14,6 km/h (3 Bft) 93,62 %
22.03.2017 09:34 6,3 C 14,4 C 10,0 C 81 % 0 lf 1013,7 hPa 0,0 l/m 2 min 0 min 473 W/m 14,6 km/h (3 Bft) 93,62 %
22.03.2017 09:36 6,4 C 13,3 C 10,6 C 80 % 0 lf 1013,7 hPa 0,0 l/m 2 min 0 min 453 W/m 16,7 km/h (3 Bft) 91,49 %
22.03.2017 09:38 6,5 C 12,8 C 10,0 C 80 % 0 lf 1013,7 hPa 0,0 l/m 2 min 0 min 457 W/m 14,6 km/h (3 Bft) 91,30 %
22.03.2017 09:40 6,7 C 13,3 C 9,4 C 80 % 0 lf 1013,8 hPa 0,0 l/m 2 min 0 min 460 W/m 18,8 km/h (3 Bft) 93,62 %
22.03.2017 09:42 6,8 C 12,8 C 8,3 C 79 % 0 lf 1013,7 hPa 0,0 l/m 2 min 0 min 464 W/m 18,8 km/h (3 Bft) 87,23 %
22.03.2017 09:44 6,9 C 13,9 C 8,3 C 79 % 0 lf 1013,7 hPa 0,0 l/m 2 min 0 min 467 W/m 25,1 km/h (4 Bft) 91,49 %
22.03.2017 09:46 7,0 C 12,8 C 8,3 C 78 % 0 lf 1013,8 hPa 0,0 l/m 2 min 0 min 475 W/m 25,1 km/h (4 Bft) 91,49 %
22.03.2017 09:48 7,1 C 11,7 C 8,3 C 76 % 0 lf 1013,7 hPa 0,0 l/m 2 min 0 min 480 W/m 20,9 km/h (4 Bft) 91,49 %
22.03.2017 09:50 7,2 C 11,7 C 8,9 C 76 % 0 lf 1013,7 hPa 0,0 l/m 2 min 0 min 483 W/m 18,8 km/h (3 Bft) 93,48 %
22.03.2017 09:52 7,3 C 12,2 C 10,0 C 75 % 0 lf 1013,7 hPa 0,0 l/m 2 min 0 min 485 W/m 16,7 km/h (3 Bft) 91,49 %
22.03.2017 09:54 7,4 C 12,8 C 11,1 C 75 % 0 lf 1013,7 hPa 0,0 l/m 2 min 0 min 488 W/m 18,8 km/h (3 Bft) 89,36 %
22.03.2017 09:56 7,4 C 12,8 C 11,7 C 75 % 0 lf 1013,7 hPa 0,0 l/m 2 min 0 min 492 W/m 25,1 km/h (4 Bft) 89,36 %
22.03.2017 09:58 7,5 C 12,2 C 12,2 C 74 % 0 lf 1013,7 hPa 0,0 l/m 2 min 0 min 492 W/m 25,1 km/h (4 Bft) 93,62 %
22.03.2017 10:00 7,6 C 12,2 C 12,2 C 74 % 0 lf 1013,7 hPa 0,0 l/m 2 min 0 min 495 W/m 18,8 km/h (3 Bft) 93,62 %
22.03.2017 10:02 7,7 C 12,8 C 12,2 C 73 % 0 lf 1013,7 hPa 0,0 l/m 2 min 0 min 498 W/m 16,7 km/h (3 Bft) 91,30 %
22.03.2017 10:04 7,7 C 13,3 C 12,2 C 73 % 0 lf 1013,7 hPa 0,0 l/m 2 min 0 min 505 W/m 29,3 km/h (5 Bft) 95,74 %
22.03.2017 10:06 7,8 C 12,2 C 12,2 C 72 % 0 lf 1013,7 hPa 0,0 l/m 2 min 0 min 509 W/m 29,3 km/h (5 Bft) 91,49 %
22.03.2017 10:08 7,9 C 14,4 C 12,2 C 72 % 0 lf 1013,7 hPa 0,0 l/m 2 min 0 min 513 W/m 23,0 km/h (4 Bft) 93,62 %
22.03.2017 10:10 7,9 C 13,9 C 12,8 C 72 % 0 lf 1013,7 hPa 0,0 l/m 2 min 0 min 521 W/m 23,0 km/h (4 Bft) 97,87 %
22.03.2017 10:12 8,1 C 14,4 C 12,8 C 72 % 0 lf 1013,7 hPa 0,0 l/m 2 min 0 min 524 W/m 23,0 km/h (4 Bft) 97,87 %
22.03.2017 10:14 8,2 C 13,9 C 12,8 C 71 % 0 lf 1013,7 hPa 0,0 l/m 2 min 0 min 523 W/m 29,3 km/h (5 Bft) 95,65 %
22.03.2017 10:16 8,2 C 15,0 C 12,8 C 71 % 0 lf 1013,7 hPa 0,0 l/m 2 min 0 min 534 W/m 18,8 km/h (3 Bft) 91,49 %
22.03.2017 10:18 8,3 C 13,3 C 12,8 C 70 % 0 lf 1013,7 hPa 0,0 l/m 2 min 0 min 536 W/m 20,9 km/h (4 Bft) 85,11 %
22.03.2017 10:20 8,4 C 13,3 C 12,8 C 69 % 0 lf 1013,7 hPa 0,0 l/m 2 min 0 min 534 W/m 23,0 km/h (4 Bft) 93,62 %
22.03.2017 10:22 8,5 C 14,4 C 13,3 C 70 % 0 lf 1013,7 hPa 0,0 l/m 2 min 0 min 540 W/m 23,0 km/h (4 Bft) 95,74 %
22.03.2017 10:24 8,7 C 15,0 C 13,9 C 70 % 0 lf 1013,7 hPa 0,0 l/m 2 min 0 min 542 W/m 25,1 km/h (4 Bft) 95,74 %
22.03.2017 10:26 8,7 C 15,0 C 13,9 C 70 % 0 lf 1013,7 hPa 0,0 l/m 2 min 0 min 544 W/m 25,1 km/h (4 Bft) 95,65 %
22.03.2017 10:28 8,8 C 13,3 C 13,9 C 67 % 0 lf 1013,7 hPa 0,0 l/m 2 min 0 min 548 W/m 29,3 km/h (5 Bft) 95,74 %
22.03.2017 10:30 8,8 C 12,8 C 13,9 C 66 % 0 lf 1013,7 hPa 0,0 l/m 2 min 0 min 552 W/m 27,2 km/h (4 Bft) 95,74 %
22.03.2017 10:32 8,8 C 14,4 C 13,9 C 66 % 0 lf 1013,7 hPa 0,0 l/m 2 min 0 min 556 W/m 23,0 km/h (4 Bft) 97,87 %
22.03.2017 10:34 8,9 C 14,4 C 13,9 C 67 % 0 lf 1013,6 hPa 0,0 l/m 2 min 0 min 562 W/m 23,0 km/h (4 Bft) 93,62 %
22.03.2017 10:36 9,0 C 15,6 C 14,4 C 68 % 0 lf 1013,6 hPa 0,0 l/m 2 min 0 min 563 W/m 18,8 km/h (3 Bft) 91,49 %
22.03.2017 10:38 9,1 C 16,7 C 14,4 C 68 % 0 lf 1013,7 hPa 0,0 l/m 2 min 0 min 567 W/m 23,0 km/h (4 Bft) 93,48 %
22.03.2017 10:40 9,2 C 16,1 C 14,4 C 68 % 0 lf 1013,7 hPa 0,0 l/m 2 min 0 min 570 W/m 18,8 km/h (3 Bft) 95,74 %
22.03.2017 10:42 9,3 C 16,1 C 14,4 C 68 % 0 lf 1013,7 hPa 0,0 l/m 2 min 0 min 576 W/m 31,4 km/h (5 Bft) 93,62 %
22.03.2017 10:44 9,4 C 16,7 C 13,9 C 67 % 0 lf 1013,7 hPa 0,0 l/m 2 min 0 min 578 W/m 20,9 km/h (4 Bft) 97,87 %
22.03.2017 10:46 9,5 C 16,7 C 14,4 C 66 % 0 lf 1013,7 hPa 0,0 l/m 2 min 0 min 578 W/m 20,9 km/h (4 Bft) 95,74 %
22.03.2017 10:48 9,6 C 15,6 C 13,9 C 66 % 0 lf 1013,7 hPa 0,0 l/m 2 min 0 min 580 W/m 31,4 km/h (5 Bft) 95,74 %
22.03.2017 10:50 9,7 C 15,6 C 13,9 C 65 % 0 lf 1013,7 hPa 0,0 l/m 2 min 0 min 599 W/m 29,3 km/h (5 Bft) 97,83 %
22.03.2017 10:52 9,7 C 15,6 C 13,9 C 65 % 0 lf 1013,6 hPa 0,0 l/m 2 min 0 min 768 W/m 25,1 km/h (4 Bft) 97,87 %
22.03.2017 10:54 9,8 C 15,6 C 13,9 C 64 % 0 lf 1013,7 hPa 0,0 l/m 2 min 0 min 605 W/m 31,4 km/h (5 Bft) 95,74 %
22.03.2017 10:56 9,8 C 15,0 C 14,4 C 63 % 0 lf 1013,6 hPa 0,0 l/m 2 min 0 min 788 W/m 20,9 km/h (4 Bft) 93,62 %
22.03.2017 10:58 9,9 C 15,6 C 14,4 C 63 % 0 lf 1013,6 hPa 0,0 l/m 2 min 0 min 766 W/m 27,2 km/h (4 Bft) 95,74 %
22.03.2017 11:00 9,9 C 15,0 C 13,9 C 63 % 0 lf 1013,7 hPa 0,0 l/m 2 min 0 min 613 W/m 37,7 km/h (5 Bft) 97,83 %
22.03.2017 11:02 10,0 C 15,6 C 14,4 C 62 % 0 lf 1013,6 hPa 0,0 l/m 2 min 0 min 615 W/m 18,8 km/h (3 Bft) 100,00 %
22.03.2017 11:04 10,1 C 16,7 C 15,0 C 63 % 0 lf 1013,6 hPa 0,0 l/m 2 min 0 min 621 W/m 23,0 km/h (4 Bft) 95,74 %
22.03.2017 11:06 10,2 C 16,7 C 14,4 C 62 % 0 lf 1013,6 hPa 0,0 l/m 2 min 0 min 620 W/m 25,1 km/h (4 Bft) 97,87 %
22.03.2017 11:08 10,2 C 15,0 C 14,4 C 61 % 0 lf 1013,6 hPa 0,0 l/m 2 min 0 min 603 W/m 27,2 km/h (4 Bft) 97,87 %
22.03.2017 11:10 10,3 C 13,9 C 15,0 C 61 % 0 lf 1013,6 hPa 0,0 l/m 2 min 0 min 612 W/m 23,0 km/h (4 Bft) 97,87 %
22.03.2017 11:12 10,3 C 14,4 C 15,0 C 61 % 0 lf 1013,6 hPa 0,0 l/m 2 min 0 min 615 W/m 25,1 km/h (4 Bft) 97,83 %
22.03.2017 11:14 10,3 C 16,1 C 14,4 C 62 % 0 lf 1013,6 hPa 0,0 l/m 2 min 0 min 622 W/m 29,3 km/h (5 Bft) 100,00 %
22.03.2017 11:16 10,4 C 15,6 C 13,9 C 61 % 0 lf 1013,6 hPa 0,0 l/m 2 min 0 min 625 W/m 33,5 km/h (5 Bft) 100,00 %
22.03.2017 11:18 10,4 C 15,6 C 13,3 C 59 % 0 lf 1013,6 hPa 0,0 l/m 2 min 0 min 626 W/m 25,1 km/h (4 Bft) 95,74 %
22.03.2017 11:20 10,4 C 16,1 C 12,8 C 59 % 0 lf 1013,5 hPa 0,0 l/m 2 min 0 min 627 W/m 27,2 km/h (4 Bft) 100,00 %
22.03.2017 11:22 10,5 C 16,7 C 12,2 C 60 % 0 lf 1013,5 hPa 0,0 l/m 2 min 0 min 629 W/m 25,1 km/h (4 Bft) 97,87 %
22.03.2017 11:24 10,6 C 15,6 C 12,2 C 59 % 0 lf 1013,6 hPa 0,0 l/m 2 min 0 min 628 W/m 27,2 km/h (4 Bft) 100,00 %
22.03.2017 11:26 10,6 C 16,1 C 11,7 C 60 % 0 lf 1013,6 hPa 0,0 l/m 2 min 0 min 629 W/m 20,9 km/h (4 Bft) 100,00 %
22.03.2017 11:28 10,7 C 15,0 C 12,2 C 60 % 0 lf 1013,6 hPa 0,0 l/m 2 min 0 min 633 W/m 27,2 km/h (4 Bft) 100,00 %
22.03.2017 11:30 10,7 C 15,6 C 12,2 C 61 % 0 lf 1013,6 hPa 0,0 l/m 2 min 0 min 638 W/m 25,1 km/h (4 Bft) 100,00 %
22.03.2017 11:32 10,7 C 15,6 C 12,2 C 61 % 0 lf 1013,6 hPa 0,0 l/m 2 min 0 min 638 W/m 20,9 km/h (4 Bft) 97,87 %
22.03.2017 11:34 10,8 C 16,7 C 12,2 C 62 % 0 lf 1013,6 hPa 0,0 l/m 2 min 0 min 640 W/m 23,0 km/h (4 Bft) 100,00 %
22.03.2017 11:36 10,9 C 16,7 C 12,2 C 62 % 0 lf 1013,5 hPa 0,0 l/m 2 min 0 min 608 W/m 29,3 km/h (5 Bft) 97,83 %
22.03.2017 11:38 10,9 C 15,0 C 12,2 C 61 % 0 lf 1013,6 hPa 0,0 l/m 2 min 0 min 644 W/m 31,4 km/h (5 Bft) 100,00 %
22.03.2017 11:40 11,0 C 16,1 C 12,2 C 61 % 0 lf 1013,6 hPa 0,0 l/m 2 min 0 min 643 W/m 27,2 km/h (4 Bft) 100,00 %
22.03.2017 11:42 11,0 C 16,1 C 12,2 C 62 % 0 lf 1013,6 hPa 0,0 l/m 2 min 0 min 637 W/m 20,9 km/h (4 Bft) 97,87 %
22.03.2017 11:44 11,1 C 15,6 C 12,2 C 62 % 0 lf 1013,6 hPa 0,0 l/m 2 min 0 min 619 W/m 29,3 km/h (5 Bft) 100,00 %
22.03.2017 11:46 11,1 C 16,1 C 12,2 C 61 % 0 lf 1013,6 hPa 0,0 l/m 2 min 0 min 667 W/m 27,2 km/h (4 Bft) 97,87 %
22.03.2017 11:48 11,1 C 16,1 C 12,2 C 62 % 0 lf 1013,6 hPa 0,0 l/m 2 min 0 min 679 W/m 27,2 km/h (4 Bft) 97,83 %
22.03.2017 11:50 11,1 C 17,2 C 12,2 C 62 % 0 lf 1013,6 hPa 0,0 l/m 2 min 0 min 660 W/m 29,3 km/h (5 Bft) 97,87 %
22.03.2017 11:52 11,2 C 16,7 C 12,2 C 62 % 0 lf 1013,5 hPa 0,0 l/m 2 min 0 min 654 W/m 31,4 km/h (5 Bft) 93,62 %
22.03.2017 11:54 11,2 C 16,7 C 12,2 C 62 % 0 lf 1013,5 hPa 0,0 l/m 2 min 0 min 569 W/m 27,2 km/h (4 Bft) 95,74 %
22.03.2017 11:56 11,2 C 15,0 C 12,2 C 61 % 0 lf 1013,5 hPa 0,0 l/m 2 min 0 min 527 W/m 25,1 km/h (4 Bft) 95,74 %
22.03.2017 11:58 11,2 C 16,1 C 12,2 C 62 % 0 lf 1013,5 hPa 0,0 l/m 2 min 0 min 616 W/m 16,7 km/h (3 Bft) 93,62 %
22.03.2017 12:00 11,3 C 15,6 C 11,7 C 62 % 0 lf 1013,5 hPa 0,0 l/m 2 min 0 min 737 W/m 25,1 km/h (4 Bft) 97,83 %
22.03.2017 12:02 11,2 C 13,9 C 11,7 C 61 % 0 lf 1013,5 hPa 0,0 l/m 2 min 0 min 673 W/m 25,1 km/h (4 Bft) 97,87 %
22.03.2017 12:04 11,2 C 13,9 C 11,7 C 61 % 0 lf 1013,5 hPa 0,0 l/m 2 min 0 min 516 W/m 25,1 km/h (4 Bft) 97,87 %
22.03.2017 12:06 11,2 C 14,4 C 11,7 C 61 % 0 lf 1013,6 hPa 0,0 l/m 2 min 0 min 472 W/m 29,3 km/h (5 Bft) 97,87 %
22.03.2017 12:08 11,1 C 16,1 C 11,7 C 62 % 0 lf 1013,5 hPa 0,0 l/m 2 min 0 min 635 W/m 35,6 km/h (5 Bft) 95,74 %
22.03.2017 12:10 11,1 C 15,6 C 11,7 C 62 % 0 lf 1013,5 hPa 0,0 l/m 2 min 0 min 580 W/m 25,1 km/h (4 Bft) 95,65 %
22.03.2017 12:12 11,1 C 14,4 C 11,7 C 61 % 0 lf 1013,5 hPa 0,0 l/m 2 min 0 min 579 W/m 20,9 km/h (4 Bft) 95,74 %
22.03.2017 12:14 11,1 C 13,9 C 11,7 C 62 % 0 lf 1013,5 hPa 0,0 l/m 2 min 0 min 624 W/m 37,7 km/h (5 Bft) 95,74 %
22.03.2017 12:16 11,0 C 14,4 C 11,7 C 62 % 0 lf 1013,6 hPa 0,0 l/m 2 min 0 min 502 W/m 25,1 km/h (4 Bft) 93,62 %
22.03.2017 12:18 10,9 C 13,3 C 11,7 C 62 % 0 lf 1013,5 hPa 0,0 l/m 2 min 0 min 526 W/m 25,1 km/h (4 Bft) 97,87 %
22.03.2017 12:20 10,9 C 13,9 C 11,7 C 62 % 0 lf 1013,5 hPa 0,0 l/m 2 min 0 min 568 W/m 18,8 km/h (3 Bft) 95,74 %
22.03.2017 12:22 10,9 C 15,6 C 11,7 C 63 % 0 lf 1013,5 hPa 0,0 l/m 2 min 0 min 569 W/m 23,0 km/h (4 Bft) 93,48 %
22.03.2017 12:24 10,9 C 15,0 C 12,2 C 63 % 0 lf 1013,5 hPa 0,0 l/m 2 min 0 min 580 W/m 23,0 km/h (4 Bft) 97,87 %
22.03.2017 12:26 10,9 C 14,4 C 12,2 C 64 % 0 lf 1013,4 hPa 0,0 l/m 2 min 0 min 422 W/m 18,8 km/h (3 Bft) 94,29 %
22.03.2017 12:28 11,0 C 15,0 C 12,2 C 63 % 0 lf 1013,5 hPa 0,0 l/m 2 min 0 min 421 W/m 23,0 km/h (4 Bft) 97,87 %
22.03.2017 12:30 11,0 C 13,9 C 12,2 C 63 % 0 lf 1013,5 hPa 0,0 l/m 2 min 0 min 432 W/m 23,0 km/h (4 Bft) 89,83 %
22.03.2017 12:32 11,0 C 13,3 C 12,2 C 63 % 0 lf 1013,5 hPa 0,0 l/m 2 min 0 min 372 W/m 18,8 km/h (3 Bft) 100,00 %
22.03.2017 12:34 11,0 C 12,8 C 12,2 C 63 % 0 lf 1013,5 hPa 0,0 l/m 2 min 0 min 323 W/m 33,5 km/h (5 Bft) 91,43 %
22.03.2017 12:36 11,0 C 12,8 C 12,2 C 63 % 0 lf 1013,5 hPa 0,0 l/m 0 min 0 min 308 W/m 23,0 km/h (4 Bft) 98,28 %
22.03.2017 12:38 10,9 C 12,2 C 11,7 C 63 % 0 lf 1013,5 hPa 0,0 l/m 0 min 0 min 309 W/m 29,3 km/h (5 Bft) 94,29 %
22.03.2017 12:40 10,9 C 12,2 C 12,2 C 63 % 0 lf 1013,5 hPa 0,0 l/m 2 min 0 min 315 W/m 25,1 km/h (4 Bft) 95,74 %
22.03.2017 12:42 10,9 C 12,2 C 12,2 C 63 % 0 lf 1013,4 hPa 0,0 l/m 0 min 0 min 314 W/m 20,9 km/h (4 Bft) 93,22 %
22.03.2017 12:44 10,8 C 12,2 C 12,2 C 63 % 0 lf 1013,4 hPa 0,0 l/m 2 min 0 min 315 W/m 27,2 km/h (4 Bft) 93,62 %
22.03.2017 12:46 10,8 C 12,2 C 12,2 C 64 % 0 lf 1013,4 hPa 0,0 l/m 2 min 0 min 338 W/m 18,8 km/h (3 Bft) 95,65 %
22.03.2017 12:48 10,8 C 12,8 C 12,8 C 64 % 0 lf 1013,3 hPa 0,0 l/m 2 min 0 min 363 W/m 16,7 km/h (3 Bft) 91,49 %
22.03.2017 12:50 10,7 C 12,2 C 12,8 C 64 % 0 lf 1013,3 hPa 0,0 l/m 2 min 0 min 339 W/m 23,0 km/h (4 Bft) 93,62 %
22.03.2017 12:52 10,7 C 12,8 C 12,2 C 64 % 0 lf 1013,3 hPa 0,0 l/m 2 min 0 min 330 W/m 25,1 km/h (4 Bft) 95,74 %
22.03.2017 12:54 10,7 C 12,8 C 12,2 C 64 % 0 lf 1013,3 hPa 0,0 l/m 2 min 0 min 387 W/m 20,9 km/h (4 Bft) 91,49 %
22.03.2017 12:56 10,7 C 12,2 C 12,2 C 64 % 0 lf 1013,2 hPa 0,0 l/m 2 min 0 min 369 W/m 25,1 km/h (4 Bft) 89,36 %
22.03.2017 12:58 10,7 C 12,2 C 12,2 C 64 % 0 lf 1013,2 hPa 0,0 l/m 0 min 0 min 314 W/m 23,0 km/h (4 Bft) 91,30 %
22.03.2017 13:00 10,7 C 12,8 C 12,2 C 64 % 0 lf 1013,2 hPa 0,0 l/m 0 min 0 min 297 W/m 25,1 km/h (4 Bft) 93,62 %
22.03.2017 13:02 10,7 C 12,8 C 12,2 C 65 % 0 lf 1013,2 hPa 0,0 l/m 0 min 0 min 297 W/m 20,9 km/h (4 Bft) 87,23 %
22.03.2017 13:04 10,7 C 15,0 C 12,2 C 65 % 0 lf 1013,2 hPa 0,0 l/m 2 min 0 min 386 W/m 23,0 km/h (4 Bft) 88,57 %
22.03.2017 13:06 10,8 C 13,9 C 12,2 C 65 % 0 lf 1013,2 hPa 0,0 l/m 2 min 0 min 353 W/m 25,1 km/h (4 Bft) 91,53 %
22.03.2017 13:08 10,8 C 13,9 C 12,2 C 64 % 0 lf 1013,1 hPa 0,0 l/m 0 min 0 min 287 W/m 29,3 km/h (5 Bft) 91,49 %
22.03.2017 13:10 10,8 C 13,3 C 11,7 C 64 % 0 lf 1013,1 hPa 0,0 l/m 0 min 0 min 300 W/m 29,3 km/h (5 Bft) 91,43 %
22.03.2017 13:12 10,9 C 15,0 C 11,7 C 64 % 0 lf 1013,1 hPa 0,0 l/m 2 min 0 min 313 W/m 25,1 km/h (4 Bft) 93,10 %
22.03.2017 13:14 10,9 C 14,4 C 11,7 C 64 % 0 lf 1013,1 hPa 0,0 l/m 2 min 0 min 313 W/m 23,0 km/h (4 Bft) 91,49 %
22.03.2017 13:16 11,0 C 13,3 C 11,7 C 63 % 0 lf 1013,1 hPa 0,0 l/m 0 min 0 min 284 W/m 20,9 km/h (4 Bft) 91,43 %
22.03.2017 13:18 11,0 C 12,8 C 11,7 C 63 % 0 lf 1013,0 hPa 0,0 l/m 0 min 0 min 268 W/m 18,8 km/h (3 Bft) 91,53 %
22.03.2017 13:20 11,1 C 14,4 C 12,2 C 64 % 0 lf 1013,0 hPa 0,0 l/m 0 min 0 min 299 W/m 14,6 km/h (3 Bft) 91,30 %
22.03.2017 13:22 11,2 C 16,7 C 12,2 C 63 % 0 lf 1013,0 hPa 0,0 l/m 2 min 0 min 633 W/m 39,7 km/h (6 Bft) 95,74 %
22.03.2017 13:24 11,2 C 15,0 C 12,2 C 61 % 0 lf 1013,0 hPa 0,0 l/m 2 min 0 min 731 W/m 41,8 km/h (6 Bft) 95,74 %
22.03.2017 13:26 11,3 C 14,4 C 12,8 C 61 % 0 lf 1013,0 hPa 0,0 l/m 2 min 0 min 388 W/m 27,2 km/h (4 Bft) 94,29 %
22.03.2017 13:28 11,4 C 14,4 C 13,3 C 61 % 0 lf 1013,1 hPa 0,0 l/m 2 min 0 min 494 W/m 29,3 km/h (5 Bft) 94,92 %
22.03.2017 13:30 11,4 C 15,6 C 13,3 C 61 % 0 lf 1013,0 hPa 0,0 l/m 2 min 0 min 631 W/m 25,1 km/h (4 Bft) 95,74 %
22.03.2017 13:32 11,4 C 16,1 C 12,8 C 61 % 0 lf 1013,0 hPa 0,0 l/m 2 min 0 min 673 W/m 27,2 km/h (4 Bft) 95,74 %
22.03.2017 13:34 11,5 C 15,6 C 12,8 C 61 % 0 lf 1013,0 hPa 0,0 l/m 2 min 0 min 465 W/m 25,1 km/h (4 Bft) 100,00 %
22.03.2017 13:36 11,6 C 15,6 C 12,8 C 61 % 0 lf 1012,9 hPa 0,0 l/m 2 min 0 min 426 W/m 18,8 km/h (3 Bft) 95,74 %
22.03.2017 13:38 11,6 C 13,9 C 12,2 C 62 % 0 lf 1012,9 hPa 0,0 l/m 2 min 0 min 419 W/m 39,7 km/h (6 Bft) 100,00 %
22.03.2017 13:40 11,6 C 13,9 C 12,2 C 61 % 0 lf 1012,9 hPa 0,0 l/m 2 min 0 min 395 W/m 27,2 km/h (4 Bft) 100,00 %
22.03.2017 13:42 11,6 C 13,9 C 12,2 C 62 % 0 lf 1013,0 hPa 0,0 l/m 2 min 0 min 422 W/m 31,4 km/h (5 Bft) 97,87 %
22.03.2017 13:44 11,6 C 15,0 C 11,7 C 62 % 0 lf 1012,9 hPa 0,0 l/m 2 min 0 min 331 W/m 25,1 km/h (4 Bft) 100,00 %
22.03.2017 13:46 11,6 C 17,2 C 12,2 C 62 % 0 lf 1012,9 hPa 0,0 l/m 2 min 0 min 323 W/m 29,3 km/h (5 Bft) 97,22 %
22.03.2017 13:48 11,6 C 16,7 C 11,7 C 62 % 0 lf 1012,8 hPa 0,0 l/m 2 min 0 min 441 W/m 33,5 km/h (5 Bft) 96,55 %
22.03.2017 13:50 11,6 C 15,0 C 11,7 C 62 % 0 lf 1012,8 hPa 0,0 l/m 2 min 0 min 428 W/m 27,2 km/h (4 Bft) 93,62 %
22.03.2017 13:52 11,6 C 16,1 C 11,1 C 62 % 0 lf 1012,8 hPa 0,0 l/m 2 min 0 min 442 W/m 27,2 km/h (4 Bft) 100,00 %
22.03.2017 13:54 11,7 C 17,8 C 11,1 C 62 % 0 lf 1012,8 hPa 0,0 l/m 2 min 0 min 554 W/m 31,4 km/h (5 Bft) 100,00 %
22.03.2017 13:56 11,7 C 17,2 C 11,1 C 62 % 0 lf 1012,8 hPa 0,0 l/m 2 min 0 min 530 W/m 25,1 km/h (4 Bft) 97,78 %
22.03.2017 13:58 11,7 C 17,2 C 11,1 C 62 % 0 lf 1012,7 hPa 0,0 l/m 2 min 0 min 658 W/m 23,0 km/h (4 Bft) 100,00 %
22.03.2017 14:00 11,8 C 17,8 C 11,7 C 62 % 0 lf 1012,7 hPa 0,0 l/m 2 min 0 min 690 W/m 23,0 km/h (4 Bft) 97,87 %
22.03.2017 14:02 11,8 C 17,8 C 11,7 C 61 % 0 lf 1012,6 hPa 0,0 l/m 2 min 0 min 707 W/m 23,0 km/h (4 Bft) 100,00 %
22.03.2017 14:04 11,9 C 16,7 C 12,2 C 62 % 0 lf 1012,7 hPa 0,0 l/m 2 min 0 min 690 W/m 35,6 km/h (5 Bft) 100,00 %
22.03.2017 14:06 12,0 C 17,8 C 12,2 C 62 % 0 lf 1012,6 hPa 0,0 l/m 2 min 0 min 632 W/m 23,0 km/h (4 Bft) 97,83 %
22.03.2017 14:08 12,1 C 17,2 C 12,2 C 62 % 0 lf 1012,6 hPa 0,0 l/m 2 min 0 min 630 W/m 31,4 km/h (5 Bft) 100,00 %
22.03.2017 14:10 12,1 C 17,2 C 12,2 C 61 % 0 lf 1012,6 hPa 0,0 l/m 2 min 0 min 628 W/m 37,7 km/h (5 Bft) 97,87 %
22.03.2017 14:12 12,1 C 17,2 C 12,2 C 61 % 0 lf 1012,6 hPa 0,0 l/m 2 min 0 min 625 W/m 29,3 km/h (5 Bft) 100,00 %
22.03.2017 14:14 12,2 C 18,3 C 12,2 C 61 % 0 lf 1012,5 hPa 0,0 l/m 2 min 0 min 623 W/m 25,1 km/h (4 Bft) 100,00 %
22.03.2017 14:16 12,2 C 17,2 C 12,8 C 62 % 0 lf 1012,5 hPa 0,0 l/m 2 min 0 min 621 W/m 23,0 km/h (4 Bft) 100,00 %
22.03.2017 14:18 12,3 C 17,8 C 13,3 C 61 % 0 lf 1012,6 hPa 0,0 l/m 2 min 0 min 618 W/m 23,0 km/h (4 Bft) 97,87 %
22.03.2017 14:20 12,3 C 17,2 C 13,9 C 60 % 0 lf 1012,5 hPa 0,0 l/m 2 min 0 min 616 W/m 33,5 km/h (5 Bft) 95,74 %
22.03.2017 14:22 12,3 C 16,7 C 13,3 C 59 % 0 lf 1012,5 hPa 0,0 l/m 2 min 0 min 614 W/m 37,7 km/h (5 Bft) 100,00 %
22.03.2017 14:24 12,3 C 17,8 C 14,4 C 59 % 0 lf 1012,5 hPa 0,0 l/m 2 min 0 min 611 W/m 31,4 km/h (5 Bft) 100,00 %
22.03.2017 14:26 12,3 C 17,2 C 15,0 C 59 % 0 lf 1012,5 hPa 0,0 l/m 2 min 0 min 622 W/m 23,0 km/h (4 Bft) 100,00 %
22.03.2017 14:28 12,3 C 17,8 C 16,1 C 60 % 0 lf 1012,4 hPa 0,0 l/m 2 min 0 min 612 W/m 12,6 km/h (3 Bft) 97,83 %
22.03.2017 14:30 12,4 C 17,8 C 15,6 C 60 % 0 lf 1012,4 hPa 0,0 l/m 2 min 0 min 624 W/m 27,2 km/h (4 Bft) 95,74 %
22.03.2017 14:32 12,4 C 17,2 C 15,0 C 60 % 0 lf 1012,4 hPa 0,0 l/m 2 min 0 min 643 W/m 18,8 km/h (3 Bft) 97,87 %
22.03.2017 14:34 12,3 C 16,7 C 15,6 C 60 % 0 lf 1012,4 hPa 0,0 l/m 2 min 0 min 649 W/m 41,8 km/h (6 Bft) 89,36 %
22.03.2017 14:36 12,3 C 15,6 C 15,6 C 58 % 0 lf 1012,4 hPa 0,0 l/m 2 min 0 min 650 W/m 29,3 km/h (5 Bft) 97,87 %
22.03.2017 14:38 12,2 C 15,6 C 15,0 C 58 % 0 lf 1012,4 hPa 0,0 l/m 2 min 0 min 593 W/m 33,5 km/h (5 Bft) 97,87 %
22.03.2017 14:40 12,2 C 16,1 C 14,4 C 59 % 0 lf 1012,3 hPa 0,0 l/m 2 min 0 min 567 W/m 31,4 km/h (5 Bft) 97,83 %
22.03.2017 14:42 12,2 C 16,7 C 13,9 C 60 % 0 lf 1012,3 hPa 0,0 l/m 2 min 0 min 563 W/m 23,0 km/h (4 Bft) 95,74 %
22.03.2017 14:44 12,2 C 16,7 C 13,9 C 60 % 0 lf 1012,2 hPa 0,0 l/m 2 min 0 min 561 W/m 29,3 km/h (5 Bft) 97,87 %
22.03.2017 14:46 12,2 C 17,2 C 13,3 C 60 % 0 lf 1012,3 hPa 0,0 l/m 2 min 0 min 561 W/m 25,1 km/h (4 Bft) 95,74 %
22.03.2017 14:48 12,2 C 18,3 C 12,8 C 60 % 0 lf 1012,2 hPa 0,0 l/m 2 min 0 min 554 W/m 16,7 km/h (3 Bft) 97,87 %
22.03.2017 14:50 12,2 C 17,8 C 12,8 C 61 % 0 lf 1012,2 hPa 0,0 l/m 2 min 0 min 552 W/m 20,9 km/h (4 Bft) 95,74 %
22.03.2017 14:52 12,3 C 16,1 C 12,2 C 59 % 0 lf 1012,2 hPa 0,0 l/m 2 min 0 min 541 W/m 33,5 km/h (5 Bft) 95,65 %
22.03.2017 14:54 12,2 C 16,1 C 12,2 C 58 % 0 lf 1012,2 hPa 0,0 l/m 2 min 0 min 546 W/m 18,8 km/h (3 Bft) 97,87 %
22.03.2017 14:56 12,2 C 16,1 C 11,7 C 59 % 0 lf 1012,2 hPa 0,0 l/m 2 min 0 min 550 W/m 31,4 km/h (5 Bft) 93,62 %
22.03.2017 14:58 12,3 C 16,7 C 11,7 C 60 % 0 lf 1012,2 hPa 0,0 l/m 2 min 0 min 540 W/m 20,9 km/h (4 Bft) 89,36 %
22.03.2017 15:00 12,3 C 16,7 C 11,7 C 59 % 0 lf 1012,2 hPa 0,0 l/m 2 min 0 min 538 W/m 27,2 km/h (4 Bft) 97,87 %
22.03.2017 15:02 12,2 C 16,1 C 11,7 C 59 % 0 lf 1012,2 hPa 0,0 l/m 2 min 0 min 531 W/m 23,0 km/h (4 Bft) 97,87 %
22.03.2017 15:04 12,2 C 16,1 C 11,7 C 60 % 0 lf 1012,1 hPa 0,0 l/m 2 min 0 min 536 W/m 27,2 km/h (4 Bft) 97,83 %
22.03.2017 15:06 12,2 C 16,7 C 11,7 C 60 % 0 lf 1012,2 hPa 0,0 l/m 2 min 0 min 540 W/m 23,0 km/h (4 Bft) 97,87 %
22.03.2017 15:08 12,2 C 17,8 C 11,7 C 60 % 0 lf 1012,2 hPa 0,0 l/m 2 min 0 min 541 W/m 29,3 km/h (5 Bft) 93,62 %
22.03.2017 15:10 12,3 C 17,2 C 11,7 C 60 % 0 lf 1012,2 hPa 0,0 l/m 2 min 0 min 556 W/m 27,2 km/h (4 Bft) 97,87 %
22.03.2017 15:12 12,3 C 17,2 C 11,7 C 60 % 0 lf 1012,2 hPa 0,0 l/m 2 min 0 min 543 W/m 29,3 km/h (5 Bft) 97,87 %
22.03.2017 15:14 12,3 C 17,8 C 11,7 C 60 % 0 lf 1012,3 hPa 0,0 l/m 2 min 0 min 549 W/m 29,3 km/h (5 Bft) 95,74 %
22.03.2017 15:16 12,4 C 17,2 C 11,7 C 60 % 0 lf 1012,2 hPa 0,0 l/m 2 min 0 min 554 W/m 23,0 km/h (4 Bft) 97,83 %
22.03.2017 15:18 12,4 C 16,1 C 11,7 C 59 % 0 lf 1012,3 hPa 0,0 l/m 2 min 0 min 321 W/m 25,1 km/h (4 Bft) 95,74 %
22.03.2017 15:20 12,4 C 16,1 C 11,7 C 60 % 0 lf 1012,2 hPa 0,0 l/m 2 min 0 min 505 W/m 25,1 km/h (4 Bft) 97,87 %
22.03.2017 15:22 12,4 C 15,0 C 11,7 C 60 % 0 lf 1012,2 hPa 0,0 l/m 0 min 0 min 239 W/m 27,2 km/h (4 Bft) 97,87 %
22.03.2017 15:24 12,4 C 14,4 C 11,7 C 60 % 0 lf 1012,2 hPa 0,0 l/m 0 min 0 min 178 W/m 23,0 km/h (4 Bft) 97,87 %
22.03.2017 15:26 12,4 C 13,9 C 11,7 C 59 % 0 lf 1012,3 hPa 0,0 l/m 0 min 0 min 213 W/m 20,9 km/h (4 Bft) 91,30 %
22.03.2017 15:28 12,3 C 14,4 C 11,7 C 59 % 0 lf 1012,3 hPa 0,0 l/m 2 min 0 min 396 W/m 31,4 km/h (5 Bft) 95,74 %
22.03.2017 15:30 12,2 C 14,4 C 11,7 C 60 % 0 lf 1012,3 hPa 0,0 l/m 2 min 0 min 554 W/m 29,3 km/h (5 Bft) 95,74 %
22.03.2017 15:32 12,2 C 16,1 C 11,7 C 60 % 0 lf 1012,3 hPa 0,0 l/m 2 min 0 min 544 W/m 27,2 km/h (4 Bft) 93,62 %
22.03.2017 15:34 12,2 C 15,6 C 11,7 C 61 % 0 lf 1012,3 hPa 0,0 l/m 2 min 0 min 408 W/m 20,9 km/h (4 Bft) 93,62 %
22.03.2017 15:36 12,2 C 16,7 C 11,7 C 61 % 0 lf 1012,2 hPa 0,0 l/m 2 min 0 min 390 W/m 27,2 km/h (4 Bft) 95,74 %
22.03.2017 15:38 12,2 C 17,2 C 12,2 C 61 % 0 lf 1012,2 hPa 0,0 l/m 2 min 0 min 532 W/m 33,5 km/h (5 Bft) 91,30 %
22.03.2017 15:40 12,3 C 17,2 C 12,2 C 61 % 0 lf 1012,3 hPa 0,0 l/m 2 min 0 min 510 W/m 33,5 km/h (5 Bft) 95,74 %
22.03.2017 15:42 12,3 C 15,0 C 12,2 C 60 % 0 lf 1012,2 hPa 0,0 l/m 2 min 0 min 329 W/m 31,4 km/h (5 Bft) 95,74 %
22.03.2017 15:44 12,2 C 13,3 C 11,7 C 60 % 0 lf 1012,2 hPa 0,0 l/m 0 min 0 min 205 W/m 35,6 km/h (5 Bft) 93,62 %
22.03.2017 15:46 12,2 C 15,6 C 11,7 C 61 % 0 lf 1012,3 hPa 0,0 l/m 2 min 0 min 325 W/m 29,3 km/h (5 Bft) 93,62 %
22.03.2017 15:48 12,2 C 15,6 C 12,2 C 61 % 0 lf 1012,2 hPa 0,0 l/m 2 min 0 min 515 W/m 25,1 km/h (4 Bft) 95,74 %
22.03.2017 15:50 12,2 C 16,1 C 12,2 C 61 % 0 lf 1012,2 hPa 0,0 l/m 2 min 0 min 502 W/m 25,1 km/h (4 Bft) 93,48 %
22.03.2017 15:53 12,2 C 16,1 C 12,2 C 61 % 0 lf 1012,3 hPa 0,0 l/m 2 min 0 min 471 W/m 29,3 km/h (5 Bft) 94,37 %
22.03.2017 15:54 12,2 C 15,6 C 12,2 C 61 % 0 lf 1012,3 hPa 0,0 l/m 1 min 0 min 457 W/m 20,9 km/h (4 Bft) 91,30 %
22.03.2017 15:58 12,1 C 15,6 C 11,1 C 60 % 0 lf 1012,2 hPa 0,0 l/m 2 min 0 min 418 W/m 29,3 km/h (5 Bft) 91,49 %
22.03.2017 15:59 12,1 C 15,6 C 11,1 C 60 % 0 lf 1012,2 hPa 0,0 l/m 1 min 0 min 415 W/m 29,3 km/h (5 Bft) 95,65 %
22.03.2017 16:00 12,1 C 16,1 C 11,1 C 61 % 0 lf 1012,2 hPa 0,0 l/m 1 min 0 min 404 W/m 27,2 km/h (4 Bft) 100,00 %
22.03.2017 16:01 12,1 C 15,0 C 11,1 C 61 % 0 lf 1012,3 hPa 0,0 l/m 1 min 0 min 404 W/m 16,7 km/h (3 Bft) 95,65 %
22.03.2017 16:02 12,1 C 15,0 C 11,1 C 61 % 0 lf 1012,2 hPa 0,0 l/m 1 min 0 min 369 W/m 14,6 km/h (3 Bft) 100,00 %
22.03.2017 16:03 12,1 C 15,0 C 11,1 C 61 % 0 lf 1012,2 hPa 0,0 l/m 1 min 0 min 350 W/m 27,2 km/h (4 Bft) 95,65 %
22.03.2017 16:04 12,0 C 14,4 C 11,1 C 61 % 0 lf 1012,3 hPa 0,0 l/m 1 min 0 min 381 W/m 20,9 km/h (4 Bft) 91,30 %
22.03.2017 16:05 12,0 C 13,9 C 10,6 C 61 % 0 lf 1012,3 hPa 0,0 l/m 1 min 0 min 381 W/m 20,9 km/h (4 Bft) 100,00 %
22.03.2017 16:06 12,0 C 13,9 C 10,6 C 61 % 0 lf 1012,2 hPa 0,0 l/m 1 min 0 min 381 W/m 33,5 km/h (5 Bft) 91,30 %
22.03.2017 16:07 11,9 C 14,4 C 10,6 C 61 % 0 lf 1012,2 hPa 0,0 l/m 1 min 0 min 373 W/m 33,5 km/h (5 Bft) 95,65 %
22.03.2017 16:08 11,9 C 14,4 C 10,6 C 61 % 0 lf 1012,3 hPa 0,0 l/m 1 min 0 min 366 W/m 27,2 km/h (4 Bft) 95,65 %
22.03.2017 16:09 11,9 C 14,4 C 10,6 C 61 % 0 lf 1012,2 hPa 0,0 l/m 1 min 0 min 366 W/m 16,7 km/h (3 Bft) 95,65 %
22.03.2017 16:10 11,9 C 14,4 C 10,6 C 61 % 0 lf 1012,3 hPa 0,0 l/m 1 min 0 min 366 W/m 16,7 km/h (3 Bft) 95,65 %
22.03.2017 16:11 11,9 C 15,0 C 10,6 C 61 % 0 lf 1012,3 hPa 0,0 l/m 1 min 0 min 362 W/m 16,7 km/h (3 Bft) 95,65 %
22.03.2017 16:12 11,9 C 15,6 C 10,6 C 61 % 0 lf 1012,3 hPa 0,0 l/m 1 min 0 min 367 W/m 23,0 km/h (4 Bft) 95,65 %
22.03.2017 16:13 11,9 C 16,1 C 10,6 C 62 % 0 lf 1012,3 hPa 0,0 l/m 1 min 0 min 371 W/m 16,7 km/h (3 Bft) 91,30 %
22.03.2017 16:14 11,9 C 16,1 C 11,1 C 62 % 0 lf 1012,2 hPa 0,0 l/m 1 min 0 min 380 W/m 16,7 km/h (3 Bft) 100,00 %
22.03.2017 16:15 11,9 C 15,6 C 11,1 C 62 % 0 lf 1012,2 hPa 0,0 l/m 1 min 0 min 294 W/m 25,1 km/h (4 Bft) 95,65 %
22.03.2017 16:18 11,9 C 13,3 C 10,6 C 62 % 0 lf 1012,3 hPa 0,0 l/m 0 min 0 min 109 W/m 18,8 km/h (3 Bft) 96,30 %
22.03.2017 16:20 11,8 C 12,8 C 10,6 C 62 % 0 lf 1012,3 hPa 0,0 l/m 0 min 0 min 100 W/m 18,8 km/h (3 Bft) 95,08 %
22.03.2017 16:22 11,8 C 12,2 C 10,0 C 63 % 0 lf 1012,3 hPa 0,0 l/m 0 min 0 min 104 W/m 29,3 km/h (5 Bft) 94,74 %
22.03.2017 16:24 11,7 C 12,8 C 10,0 C 63 % 0 lf 1012,3 hPa 0,0 l/m 0 min 0 min 147 W/m 33,5 km/h (5 Bft) 95,74 %
22.03.2017 16:26 11,6 C 13,9 C 10,0 C 62 % 0 lf 1012,3 hPa 0,0 l/m 2 min 0 min 320 W/m 27,2 km/h (4 Bft) 93,62 %
22.03.2017 16:28 11,5 C 14,4 C 10,0 C 62 % 0 lf 1012,3 hPa 0,0 l/m 2 min 0 min 319 W/m 20,9 km/h (4 Bft) 97,87 %
22.03.2017 16:30 11,5 C 14,4 C 10,0 C 62 % 0 lf 1012,3 hPa 0,0 l/m 2 min 0 min 316 W/m 18,8 km/h (3 Bft) 95,74 %
22.03.2017 16:32 11,4 C 13,9 C 10,0 C 62 % 0 lf 1012,3 hPa 0,0 l/m 2 min 0 min 312 W/m 29,3 km/h (5 Bft) 97,83 %
22.03.2017 16:34 11,4 C 15,0 C 10,0 C 63 % 0 lf 1012,3 hPa 0,0 l/m 2 min 0 min 308 W/m 23,0 km/h (4 Bft) 97,87 %
22.03.2017 16:36 11,4 C 15,0 C 10,0 C 63 % 0 lf 1012,3 hPa 0,0 l/m 2 min 0 min 299 W/m 25,1 km/h (4 Bft) 95,74 %
22.03.2017 16:38 11,4 C 15,0 C 10,0 C 64 % 0 lf 1012,3 hPa 0,0 l/m 2 min 0 min 296 W/m 31,4 km/h (5 Bft) 96,43 %
22.03.2017 16:40 11,4 C 15,0 C 10,0 C 63 % 0 lf 1012,2 hPa 0,0 l/m 2 min 0 min 289 W/m 23,0 km/h (4 Bft) 97,83 %
22.03.2017 16:42 11,4 C 14,4 C 10,0 C 64 % 0 lf 1012,2 hPa 0,0 l/m 2 min 0 min 282 W/m 25,1 km/h (4 Bft) 97,87 %
22.03.2017 16:44 11,4 C 15,0 C 10,0 C 64 % 0 lf 1012,2 hPa 0,0 l/m 2 min 0 min 274 W/m 23,0 km/h (4 Bft) 97,87 %
22.03.2017 16:46 11,5 C 16,1 C 10,0 C 64 % 0 lf 1012,1 hPa 0,0 l/m 2 min 0 min 268 W/m 20,9 km/h (4 Bft) 97,37 %
22.03.2017 16:48 11,5 C 15,6 C 10,0 C 64 % 0 lf 1012,1 hPa 0,0 l/m 2 min 0 min 263 W/m 25,1 km/h (4 Bft) 97,87 %
22.03.2017 16:50 11,5 C 15,0 C 10,0 C 63 % 0 lf 1012,1 hPa 0,0 l/m 2 min 0 min 256 W/m 31,4 km/h (5 Bft) 97,87 %
22.03.2017 16:52 11,6 C 14,4 C 10,0 C 63 % 0 lf 1012,1 hPa 0,0 l/m 2 min 0 min 249 W/m 27,2 km/h (4 Bft) 100,00 %
22.03.2017 16:54 11,6 C 15,0 C 10,0 C 63 % 0 lf 1012,2 hPa 0,0 l/m 2 min 0 min 245 W/m 37,7 km/h (5 Bft) 100,00 %
22.03.2017 16:56 11,6 C 15,0 C 10,0 C 63 % 0 lf 1012,2 hPa 0,0 l/m 2 min 0 min 239 W/m 31,4 km/h (5 Bft) 100,00 %
22.03.2017 16:58 11,6 C 14,4 C 9,4 C 63 % 0 lf 1012,2 hPa 0,0 l/m 2 min 0 min 233 W/m 35,6 km/h (5 Bft) 100,00 %
22.03.2017 17:00 11,5 C 13,9 C 9,4 C 63 % 0 lf 1012,2 hPa 0,0 l/m 2 min 0 min 224 W/m 37,7 km/h (5 Bft) 100,00 %
22.03.2017 17:02 11,5 C 13,9 C 9,4 C 63 % 0 lf 1012,2 hPa 0,0 l/m 2 min 0 min 215 W/m 25,1 km/h (4 Bft) 97,87 %
22.03.2017 17:04 11,4 C 13,9 C 9,4 C 63 % 0 lf 1012,2 hPa 0,0 l/m 2 min 0 min 212 W/m 20,9 km/h (4 Bft) 98,18 %
22.03.2017 17:06 11,4 C 13,3 C 9,4 C 63 % 0 lf 1012,2 hPa 0,0 l/m 2 min 0 min 205 W/m 29,3 km/h (5 Bft) 100,00 %
22.03.2017 17:08 11,3 C 12,8 C 9,4 C 63 % 0 lf 1012,2 hPa 0,0 l/m 2 min 0 min 196 W/m 29,3 km/h (5 Bft) 97,37 %
22.03.2017 17:10 11,2 C 12,8 C 9,4 C 63 % 0 lf 1012,2 hPa 0,0 l/m 2 min 0 min 189 W/m 27,2 km/h (4 Bft) 97,87 %
22.03.2017 17:12 11,2 C 13,3 C 9,4 C 64 % 0 lf 1012,2 hPa 0,0 l/m 2 min 0 min 183 W/m 29,3 km/h (5 Bft) 97,87 %
22.03.2017 17:14 11,1 C 13,3 C 9,4 C 64 % 0 lf 1012,3 hPa 0,0 l/m 2 min 0 min 177 W/m 31,4 km/h (5 Bft) 100,00 %
22.03.2017 17:16 11,1 C 13,3 C 9,4 C 64 % 0 lf 1012,2 hPa 0,0 l/m 2 min 0 min 168 W/m 29,3 km/h (5 Bft) 93,62 %
22.03.2017 17:18 11,1 C 13,9 C 8,9 C 64 % 0 lf 1012,2 hPa 0,0 l/m 2 min 0 min 162 W/m 25,1 km/h (4 Bft) 100,00 %
22.03.2017 17:20 11,1 C 13,3 C 8,9 C 65 % 0 lf 1012,2 hPa 0,0 l/m 2 min 0 min 156 W/m 29,3 km/h (5 Bft) 95,74 %
22.03.2017 17:23 11,0 C 13,3 C 8,9 C 65 % 0 lf 1012,2 hPa 0,0 l/m 2 min 0 min 148 W/m 25,1 km/h (4 Bft) 97,14 %
22.03.2017 17:24 11,0 C 13,3 C 8,9 C 65 % 0 lf 1012,2 hPa 0,0 l/m 1 min 0 min 144 W/m 23,0 km/h (4 Bft) 100,00 %
22.03.2017 17:28 11,0 C 12,8 C 8,9 C 65 % 0 lf 1012,2 hPa 0,0 l/m 2 min 0 min 136 W/m 29,3 km/h (5 Bft) 95,70 %
22.03.2017 17:29 10,9 C 12,8 C 8,9 C 65 % 0 lf 1012,1 hPa 0,0 l/m 1 min 0 min 127 W/m 23,0 km/h (4 Bft) 95,83 %
22.03.2017 17:30 10,9 C 12,8 C 8,9 C 65 % 0 lf 1012,1 hPa 0,0 l/m 1 min 0 min 131 W/m 29,3 km/h (5 Bft) 97,37 %
22.03.2017 17:35 10,9 C 12,2 C 8,9 C 65 % 0 lf 1012,2 hPa 0,0 l/m 2 min 0 min 116 W/m 29,3 km/h (5 Bft) 100,00 %
22.03.2017 17:40 10,8 C 11,7 C 8,9 C 65 % 0 lf 1012,2 hPa 0,0 l/m 2 min 0 min 102 W/m 27,2 km/h (4 Bft) 100,00 %
22.03.2017 17:45 10,7 C 11,1 C 8,3 C 66 % 0 lf 1012,2 hPa 0,0 l/m 2 min 0 min 85 W/m 31,4 km/h (5 Bft) 97,37 %
22.03.2017 17:50 10,6 C 10,6 C 8,3 C 66 % 0 lf 1012,2 hPa 0,0 l/m 2 min 0 min 75 W/m 25,1 km/h (4 Bft) 98,25 %
22.03.2017 17:55 10,5 C 10,6 C 8,3 C 66 % 0 lf 1012,2 hPa 0,0 l/m 0 min 0 min 66 W/m 23,0 km/h (4 Bft) 99,12 %
22.03.2017 18:00 10,4 C 10,0 C 7,8 C 67 % 0 lf 1012,2 hPa 0,0 l/m 0 min 0 min 55 W/m 25,1 km/h (4 Bft) 99,12 %
22.03.2017 18:05 10,3 C 10,0 C 7,8 C 67 % 0 lf 1012,2 hPa 0,0 l/m 0 min 0 min 46 W/m 25,1 km/h (4 Bft) 96,49 %
22.03.2017 18:10 10,2 C 10,0 C 7,8 C 67 % 0 lf 1012,3 hPa 0,0 l/m 0 min 0 min 37 W/m 18,8 km/h (3 Bft) 97,37 %
22.03.2017 18:15 10,1 C 10,0 C 7,8 C 67 % 0 lf 1012,3 hPa 0,0 l/m 0 min 0 min 33 W/m 18,8 km/h (3 Bft) 92,98 %
22.03.2017 18:18 10,1 C 9,4 C 7,2 C 68 % 0 lf 1012,3 hPa 0,0 l/m 0 min 0 min 29 W/m 8,4 km/h (2 Bft) 91,43 %
22.03.2017 18:20 10,0 C 9,4 C 7,2 C 68 % 0 lf 1012,3 hPa 0,0 l/m 2 min 0 min 36 W/m 16,7 km/h (3 Bft) 95,74 %
22.03.2017 18:22 9,9 C 9,4 C 7,2 C 68 % 0 lf 1012,3 hPa 0,0 l/m 2 min 0 min 68 W/m 18,8 km/h (3 Bft) 91,07 %
22.03.2017 18:24 9,9 C 9,4 C 7,2 C 68 % 0 lf 1012,3 hPa 0,0 l/m 2 min 0 min 62 W/m 23,0 km/h (4 Bft) 91,49 %
22.03.2017 18:26 9,8 C 9,4 C 7,2 C 68 % 0 lf 1012,3 hPa 0,0 l/m 2 min 0 min 56 W/m 18,8 km/h (3 Bft) 92,11 %
22.03.2017 18:28 9,8 C 9,4 C 7,2 C 68 % 0 lf 1012,3 hPa 0,0 l/m 2 min 0 min 50 W/m 20,9 km/h (4 Bft) 91,49 %
22.03.2017 18:30 9,7 C 9,4 C 7,2 C 68 % 0 lf 1012,2 hPa 0,0 l/m 2 min 0 min 45 W/m 16,7 km/h (3 Bft) 95,65 %
22.03.2017 18:32 9,7 C 9,4 C 7,2 C 68 % 0 lf 1012,2 hPa 0,0 l/m 2 min 0 min 39 W/m 12,6 km/h (3 Bft) 93,62 %
22.03.2017 18:34 9,7 C 9,4 C 7,2 C 68 % 0 lf 1012,2 hPa 0,0 l/m 0 min 0 min 18 W/m 14,6 km/h (3 Bft) 93,62 %
22.03.2017 18:37 9,6 C 9,4 C 7,2 C 68 % 0 lf 1012,3 hPa 0,0 l/m 2 min 0 min 24 W/m 14,6 km/h (3 Bft) 95,71 %
22.03.2017 18:40 9,6 C 9,4 C 6,7 C 69 % 0 lf 1012,3 hPa 0,0 l/m 0 min 0 min 16 W/m 12,6 km/h (3 Bft) 100,00 %
22.03.2017 18:42 9,5 C 8,9 C 6,7 C 69 % 0 lf 1012,2 hPa 0,0 l/m 0 min 0 min 10 W/m 14,6 km/h (3 Bft) 95,08 %
22.03.2017 18:44 9,4 C 8,9 C 6,7 C 69 % 0 lf 1012,3 hPa 0,0 l/m 0 min 0 min 4 W/m 20,9 km/h (4 Bft) 95,74 %
22.03.2017 18:46 9,4 C 9,4 C 6,7 C 69 % 0 lf 1012,3 hPa 0,0 l/m 0 min 0 min 4 W/m 16,7 km/h (3 Bft) 95,74 %
22.03.2017 18:48 9,4 C 9,4 C 7,2 C 69 % 0 lf 1012,3 hPa 0,0 l/m 0 min 0 min 4 W/m 29,3 km/h (5 Bft) 93,62 %
22.03.2017 18:50 9,3 C 9,4 C 7,2 C 70 % 0 lf 1012,3 hPa 0,0 l/m 0 min 0 min 4 W/m 16,7 km/h (3 Bft) 97,87 %
22.03.2017 18:52 9,3 C 9,4 C 7,2 C 70 % 0 lf 1012,3 hPa 0,0 l/m 0 min 0 min 4 W/m 16,7 km/h (3 Bft) 98,15 %
22.03.2017 18:54 9,3 C 9,4 C 7,2 C 70 % 0 lf 1012,4 hPa 0,0 l/m 0 min 0 min 4 W/m 23,0 km/h (4 Bft) 97,83 %
22.03.2017 18:56 9,3 C 9,4 C 7,2 C 70 % 0 lf 1012,3 hPa 0,0 l/m 0 min 0 min 6 W/m 25,1 km/h (4 Bft) 95,74 %
22.03.2017 18:58 9,2 C 9,4 C 7,2 C 70 % 0 lf 1012,3 hPa 0,0 l/m 0 min 0 min 7 W/m 18,8 km/h (3 Bft) 100,00 %
22.03.2017 19:00 9,2 C 9,4 C 7,2 C 70 % 0 lf 1012,5 hPa 0,0 l/m 0 min 0 min 6 W/m 20,9 km/h (4 Bft) 100,00 %
22.03.2017 19:02 9,2 C 9,4 C 7,8 C 70 % 0 lf 1012,5 hPa 0,0 l/m 0 min 0 min 8 W/m 16,7 km/h (3 Bft) 100,00 %
22.03.2017 19:04 9,2 C 9,4 C 7,8 C 70 % 0 lf 1012,6 hPa 0,0 l/m 0 min 0 min 8 W/m 18,8 km/h (3 Bft) 97,83 %
22.03.2017 19:06 9,2 C 9,4 C 7,8 C 70 % 0 lf 1012,6 hPa 0,0 l/m 0 min 0 min 5 W/m 14,6 km/h (3 Bft) 100,00 %
22.03.2017 19:08 9,2 C 9,4 C 7,8 C 70 % 0 lf 1012,6 hPa 0,0 l/m 0 min 0 min 0 W/m 16,7 km/h (3 Bft) 95,74 %
22.03.2017 19:10 9,2 C 9,4 C 7,8 C 70 % 0 lf 1012,6 hPa 0,0 l/m 0 min 0 min 5 W/m 14,6 km/h (3 Bft) 97,87 %
22.03.2017 19:12 9,2 C 9,4 C 7,2 C 70 % 0 lf 1012,6 hPa 0,0 l/m 0 min 0 min 0 W/m 16,7 km/h (3 Bft) 100,00 %
22.03.2017 19:14 9,2 C 9,4 C 7,2 C 70 % 0 lf 1012,5 hPa 0,0 l/m 0 min 0 min 0 W/m 8,4 km/h (2 Bft) 97,87 %
22.03.2017 19:16 9,2 C 9,4 C 7,2 C 70 % 0 lf 1012,5 hPa 0,0 l/m 0 min 0 min 0 W/m 16,7 km/h (3 Bft) 97,83 %
22.03.2017 19:18 9,2 C 9,4 C 7,2 C 70 % 0 lf 1012,5 hPa 0,0 l/m 0 min 0 min 0 W/m 12,6 km/h (3 Bft) 100,00 %
22.03.2017 19:20 9,2 C 9,4 C 7,2 C 71 % 0 lf 1012,5 hPa 0,0 l/m 0 min 0 min 1 W/m 14,6 km/h (3 Bft) 97,87 %
22.03.2017 19:22 9,2 C 9,4 C 7,2 C 71 % 0 lf 1012,6 hPa 0,0 l/m 0 min 0 min 5 W/m 12,6 km/h (3 Bft) 100,00 %
22.03.2017 19:24 9,2 C 9,4 C 7,2 C 71 % 0 lf 1012,6 hPa 0,0 l/m 0 min 0 min 0 W/m 14,6 km/h (3 Bft) 97,87 %
22.03.2017 19:26 9,2 C 9,4 C 7,2 C 71 % 0 lf 1012,6 hPa 0,0 l/m 0 min 0 min 0 W/m 14,6 km/h (3 Bft) 95,74 %
22.03.2017 19:28 9,2 C 9,4 C 7,2 C 71 % 0 lf 1012,6 hPa 0,0 l/m 0 min 0 min 0 W/m 12,6 km/h (3 Bft) 93,48 %
22.03.2017 19:30 9,2 C 9,4 C 7,2 C 71 % 0 lf 1012,6 hPa 0,0 l/m 0 min 0 min 0 W/m 16,7 km/h (3 Bft) 97,87 %
22.03.2017 19:32 9,2 C 9,4 C 7,2 C 71 % 0 lf 1012,7 hPa 0,0 l/m 0 min 0 min 0 W/m 14,6 km/h (3 Bft) 95,74 %
22.03.2017 19:34 9,2 C 9,4 C 7,2 C 71 % 0 lf 1012,7 hPa 0,0 l/m 0 min 0 min 0 W/m 8,4 km/h (2 Bft) 97,87 %
22.03.2017 19:36 9,1 C 9,4 C 7,2 C 71 % 0 lf 1012,8 hPa 0,0 l/m 0 min 0 min 0 W/m 10,5 km/h (2 Bft) 95,74 %
22.03.2017 19:38 9,1 C 9,4 C 7,2 C 71 % 0 lf 1012,7 hPa 0,0 l/m 0 min 0 min 0 W/m 8,4 km/h (2 Bft) 95,74 %
22.03.2017 19:40 9,1 C 9,4 C 7,2 C 71 % 0 lf 1012,8 hPa 0,0 l/m 0 min 0 min 0 W/m 10,5 km/h (2 Bft) 97,83 %
22.03.2017 19:43 9,1 C 9,4 C 7,2 C 72 % 0 lf 1012,8 hPa 0,0 l/m 0 min 0 min 0 W/m 10,5 km/h (2 Bft) 96,15 %
22.03.2017 19:44 9,1 C 8,9 C 7,2 C 72 % 0 lf 1012,8 hPa 0,0 l/m 0 min 0 min 0 W/m 10,5 km/h (2 Bft) 95,65 %
22.03.2017 19:46 9,1 C 8,9 C 7,2 C 72 % 0 lf 1012,8 hPa 0,0 l/m 0 min 0 min 0 W/m 10,5 km/h (2 Bft) 95,74 %
22.03.2017 19:48 9,1 C 8,9 C 7,2 C 72 % 0 lf 1012,8 hPa 0,0 l/m 0 min 0 min 0 W/m 10,5 km/h (2 Bft) 95,74 %
22.03.2017 19:50 9,1 C 8,9 C 7,2 C 72 % 0 lf 1012,8 hPa 0,0 l/m 0 min 0 min 0 W/m 10,5 km/h (2 Bft) 97,87 %
22.03.2017 19:52 9,1 C 8,9 C 7,2 C 72 % 0 lf 1012,9 hPa 0,0 l/m 0 min 0 min 5 W/m 6,3 km/h (2 Bft) 95,65 %
22.03.2017 19:54 9,1 C 8,9 C 7,2 C 72 % 0 lf 1012,9 hPa 0,0 l/m 0 min 0 min 5 W/m 6,3 km/h (2 Bft) 94,12 %
22.03.2017 19:56 9,1 C 8,9 C 7,2 C 72 % 0 lf 1013,0 hPa 0,0 l/m 0 min 0 min 0 W/m 8,4 km/h (2 Bft) 98,11 %
22.03.2017 19:58 9,1 C 8,9 C 7,2 C 72 % 0 lf 1013,0 hPa 0,0 l/m 0 min 0 min 0 W/m 10,5 km/h (2 Bft) 97,87 %
22.03.2017 20:00 9,1 C 8,9 C 7,2 C 72 % 0 lf 1012,9 hPa 0,0 l/m 0 min 0 min 0 W/m 8,4 km/h (2 Bft) 97,87 %
22.03.2017 20:02 9,0 C 8,9 C 7,2 C 72 % 0 lf 1013,0 hPa 0,0 l/m 0 min 0 min 0 W/m 8,4 km/h (2 Bft) 93,48 %
22.03.2017 20:04 9,0 C 8,9 C 7,2 C 72 % 0 lf 1013,0 hPa 0,0 l/m 0 min 0 min 0 W/m 6,3 km/h (2 Bft) 93,62 %
22.03.2017 20:06 9,0 C 8,9 C 7,2 C 72 % 0 lf 1013,0 hPa 0,0 l/m 0 min 0 min 0 W/m 6,3 km/h (2 Bft) 95,74 %
22.03.2017 20:08 9,0 C 8,9 C 6,7 C 72 % 0 lf 1013,0 hPa 0,0 l/m 0 min 0 min 0 W/m 6,3 km/h (2 Bft) 97,87 %
22.03.2017 20:10 9,0 C 8,9 C 6,7 C 72 % 0 lf 1013,0 hPa 0,0 l/m 0 min 0 min 0 W/m 6,3 km/h (2 Bft) 94,34 %
22.03.2017 20:12 9,0 C 8,9 C 6,7 C 72 % 0 lf 1013,0 hPa 0,0 l/m 0 min 0 min 0 W/m 8,4 km/h (2 Bft) 93,62 %
22.03.2017 20:14 8,9 C 8,9 C 6,7 C 72 % 0 lf 1013,0 hPa 0,0 l/m 0 min 0 min 0 W/m 6,3 km/h (2 Bft) 95,74 %
22.03.2017 20:16 8,9 C 8,9 C 6,7 C 72 % 0 lf 1013,0 hPa 0,0 l/m 0 min 0 min 0 W/m 6,3 km/h (2 Bft) 93,48 %
22.03.2017 20:18 8,9 C 8,9 C 6,7 C 72 % 0 lf 1013,1 hPa 0,0 l/m 0 min 0 min 0 W/m 6,3 km/h (2 Bft) 100,00 %
22.03.2017 20:20 8,9 C 8,9 C 6,7 C 72 % 0 lf 1013,0 hPa 0,0 l/m 0 min 0 min 0 W/m 6,3 km/h (2 Bft) 97,87 %
22.03.2017 20:22 8,9 C 8,9 C 6,7 C 73 % 0 lf 1013,1 hPa 0,0 l/m 0 min 0 min 0 W/m 4,2 km/h (1 Bft) 97,87 %
22.03.2017 20:24 8,9 C 8,9 C 6,7 C 73 % 0 lf 1013,1 hPa 0,0 l/m 0 min 0 min 0 W/m 6,3 km/h (2 Bft) 97,87 %
22.03.2017 20:26 8,9 C 8,9 C 6,7 C 73 % 0 lf 1013,1 hPa 0,0 l/m 0 min 0 min 0 W/m 4,2 km/h (1 Bft) 97,87 %
22.03.2017 20:28 8,9 C 8,9 C 6,7 C 73 % 0 lf 1013,1 hPa 0,0 l/m 0 min 0 min 0 W/m 4,2 km/h (1 Bft) 95,65 %
22.03.2017 20:30 8,9 C 8,9 C 6,7 C 73 % 0 lf 1013,0 hPa 0,0 l/m 0 min 0 min 0 W/m 4,2 km/h (1 Bft) 93,62 %
22.03.2017 20:32 8,9 C 8,9 C 6,1 C 73 % 0 lf 1013,0 hPa 0,0 l/m 0 min 0 min 0 W/m 6,3 km/h (2 Bft) 97,87 %
22.03.2017 20:34 8,8 C 8,9 C 6,1 C 73 % 0 lf 1013,0 hPa 0,0 l/m 0 min 0 min 0 W/m 4,2 km/h (1 Bft) 93,62 %
22.03.2017 20:36 8,8 C 8,3 C 6,1 C 73 % 0 lf 1013,0 hPa 0,0 l/m 0 min 0 min 0 W/m 4,2 km/h (1 Bft) 95,74 %
22.03.2017 20:38 8,8 C 8,3 C 5,6 C 73 % 0 lf 1013,0 hPa 0,0 l/m 0 min 0 min 0 W/m 4,2 km/h (1 Bft) 95,74 %
22.03.2017 20:40 8,8 C 8,3 C 5,6 C 73 % 0 lf 1013,0 hPa 0,0 l/m 0 min 0 min 0 W/m 4,2 km/h (1 Bft) 97,83 %
22.03.2017 20:42 8,8 C 8,3 C 5,6 C 73 % 0 lf 1013,0 hPa 0,0 l/m 0 min 0 min 0 W/m 4,2 km/h (1 Bft) 95,74 %
22.03.2017 20:44 8,8 C 8,3 C 5,0 C 73 % 0 lf 1013,0 hPa 0,0 l/m 0 min 0 min 5 W/m 4,2 km/h (1 Bft) 95,74 %
22.03.2017 20:46 8,8 C 8,3 C 5,0 C 73 % 0 lf 1013,0 hPa 0,0 l/m 0 min 0 min 0 W/m 2,1 km/h (1 Bft) 95,74 %
22.03.2017 20:48 8,7 C 8,3 C 5,0 C 73 % 0 lf 1013,0 hPa 0,0 l/m 0 min 0 min 0 W/m 2,1 km/h (1 Bft) 97,87 %
22.03.2017 20:50 8,7 C 8,3 C 5,0 C 73 % 0 lf 1013,0 hPa 0,0 l/m 0 min 0 min 0 W/m 4,2 km/h (1 Bft) 97,87 %
22.03.2017 20:52 8,7 C 8,3 C 5,0 C 73 % 0 lf 1013,0 hPa 0,0 l/m 0 min 0 min 0 W/m 2,1 km/h (1 Bft) 95,65 %
22.03.2017 20:54 8,7 C 7,8 C 4,4 C 73 % 0 lf 1013,0 hPa 0,0 l/m 0 min 0 min 0 W/m 4,2 km/h (1 Bft) 93,62 %
22.03.2017 20:56 8,7 C 7,8 C 4,4 C 73 % 0 lf 1012,9 hPa 0,0 l/m 0 min 0 min 0 W/m 2,1 km/h (1 Bft) 97,87 %
22.03.2017 20:58 8,6 C 7,8 C 4,4 C 73 % 0 lf 1012,9 hPa 0,0 l/m 0 min 0 min 0 W/m 2,1 km/h (1 Bft) 95,74 %
22.03.2017 21:00 8,6 C 7,2 C 4,4 C 73 % 0 lf 1012,9 hPa 0,0 l/m 0 min 0 min 0 W/m 0,0 km/h (0 Bft) 85,11 %
22.03.2017 21:02 8,6 C 7,2 C 4,4 C 73 % 0 lf 1013,0 hPa 0,0 l/m 0 min 0 min 0 W/m 0,0 km/h (0 Bft) 91,49 %
22.03.2017 21:04 8,6 C 7,2 C 4,4 C 73 % 0 lf 1013,0 hPa 0,0 l/m 0 min 0 min 0 W/m 0,0 km/h (0 Bft) 95,65 %
22.03.2017 21:06 8,5 C 7,2 C 4,4 C 73 % 0 lf 1013,0 hPa 0,0 l/m 0 min 0 min 0 W/m 2,1 km/h (1 Bft) 95,74 %
22.03.2017 21:08 8,4 C 6,7 C 4,4 C 73 % 0 lf 1013,0 hPa 0,0 l/m 0 min 0 min 0 W/m 2,1 km/h (1 Bft) 93,62 %
22.03.2017 21:10 8,4 C 6,7 C 4,4 C 73 % 0 lf 1013,0 hPa 0,0 l/m 0 min 0 min 0 W/m 0,0 km/h (0 Bft) 91,49 %
22.03.2017 21:12 8,4 C 6,7 C 4,4 C 73 % 0 lf 1013,0 hPa 0,0 l/m 0 min 0 min 0 W/m 0,0 km/h (0 Bft) 91,49 %
22.03.2017 21:14 8,3 C 6,7 C 3,9 C 73 % 0 lf 1013,0 hPa 0,0 l/m 0 min 0 min 0 W/m 0,0 km/h (0 Bft) 95,74 %
22.03.2017 21:16 8,3 C 6,7 C 3,9 C 73 % 0 lf 1013,0 hPa 0,0 l/m 0 min 0 min 0 W/m 0,0 km/h (0 Bft) 95,65 %
22.03.2017 21:18 8,3 C 6,7 C 3,9 C 73 % 0 lf 1013,0 hPa 0,0 l/m 0 min 0 min 0 W/m 0,0 km/h (0 Bft) 91,49 %
22.03.2017 21:20 8,2 C 6,1 C 3,9 C 73 % 0 lf 1013,0 hPa 0,0 l/m 0 min 0 min 0 W/m 0,0 km/h (0 Bft) 95,74 %
22.03.2017 21:22 8,2 C 6,1 C 3,9 C 74 % 0 lf 1013,0 hPa 0,0 l/m 0 min 0 min 0 W/m 0,0 km/h (0 Bft) 93,62 %
22.03.2017 21:24 8,2 C 6,1 C 3,9 C 74 % 0 lf 1013,0 hPa 0,0 l/m 0 min 0 min 0 W/m 0,0 km/h (0 Bft) 93,62 %
22.03.2017 21:26 8,1 C 6,1 C 3,9 C 74 % 0 lf 1013,0 hPa 0,0 l/m 0 min 0 min 0 W/m 0,0 km/h (0 Bft) 93,62 %
22.03.2017 21:28 8,1 C 6,1 C 3,3 C 74 % 0 lf 1013,0 hPa 0,0 l/m 0 min 0 min 0 W/m 0,0 km/h (0 Bft) 93,48 %
22.03.2017 21:30 8,0 C 6,1 C 3,3 C 74 % 0 lf 1013,0 hPa 0,0 l/m 0 min 0 min 0 W/m 0,0 km/h (0 Bft) 95,74 %
22.03.2017 21:32 7,9 C 5,6 C 3,3 C 74 % 0 lf 1013,1 hPa 0,0 l/m 0 min 0 min 0 W/m 0,0 km/h (0 Bft) 95,74 %
22.03.2017 21:34 7,9 C 5,6 C 3,3 C 74 % 0 lf 1013,1 hPa 0,0 l/m 0 min 0 min 0 W/m 0,0 km/h (0 Bft) 95,74 %
22.03.2017 21:36 7,8 C 5,6 C 3,3 C 75 % 0 lf 1013,1 hPa 0,0 l/m 0 min 0 min 0 W/m 0,0 km/h (0 Bft) 95,74 %
22.03.2017 21:38 7,8 C 5,6 C 3,3 C 75 % 0 lf 1013,1 hPa 0,0 l/m 0 min 0 min 0 W/m 0,0 km/h (0 Bft) 95,65 %
22.03.2017 21:40 7,7 C 5,6 C 2,8 C 75 % 0 lf 1013,1 hPa 0,0 l/m 0 min 0 min 5 W/m 0,0 km/h (0 Bft) 95,74 %
22.03.2017 21:42 7,7 C 5,6 C 2,8 C 75 % 0 lf 1013,2 hPa 0,0 l/m 0 min 0 min 0 W/m 0,0 km/h (0 Bft) 91,49 %
22.03.2017 21:44 7,6 C 5,6 C 2,8 C 75 % 0 lf 1013,1 hPa 0,0 l/m 0 min 0 min 0 W/m 0,0 km/h (0 Bft) 93,62 %
22.03.2017 21:46 7,6 C 5,0 C 2,8 C 75 % 0 lf 1013,1 hPa 0,0 l/m 0 min 0 min 0 W/m 0,0 km/h (0 Bft) 93,62 %
22.03.2017 21:48 7,5 C 5,0 C 2,8 C 75 % 0 lf 1013,1 hPa 0,0 l/m 0 min 0 min 0 W/m 0,0 km/h (0 Bft) 93,62 %
22.03.2017 21:50 7,4 C 5,0 C 2,8 C 75 % 0 lf 1013,1 hPa 0,0 l/m 0 min 0 min 0 W/m 0,0 km/h (0 Bft) 93,48 %
22.03.2017 21:52 7,4 C 5,0 C 2,8 C 76 % 0 lf 1013,1 hPa 0,0 l/m 0 min 0 min 0 W/m 0,0 km/h (0 Bft) 100,00 %
22.03.2017 21:54 7,3 C 5,0 C 2,8 C 76 % 0 lf 1013,1 hPa 0,0 l/m 0 min 0 min 5 W/m 0,0 km/h (0 Bft) 89,36 %
22.03.2017 21:56 7,3 C 5,0 C 2,8 C 76 % 0 lf 1013,2 hPa 0,0 l/m 0 min 0 min 5 W/m 0,0 km/h (0 Bft) 93,62 %
22.03.2017 21:58 7,2 C 5,0 C 2,8 C 76 % 0 lf 1013,1 hPa 0,0 l/m 0 min 0 min 0 W/m 0,0 km/h (0 Bft) 97,87 %
22.03.2017 22:00 7,2 C 5,0 C 2,2 C 76 % 0 lf 1013,1 hPa 0,0 l/m 0 min 0 min 0 W/m 0,0 km/h (0 Bft) 95,74 %
22.03.2017 22:02 7,1 C 5,0 C 2,2 C 77 % 0 lf 1013,1 hPa 0,0 l/m 0 min 0 min 0 W/m 0,0 km/h (0 Bft) 89,13 %
22.03.2017 22:04 7,0 C 5,0 C 2,2 C 77 % 0 lf 1013,1 hPa 0,0 l/m 0 min 0 min 0 W/m 0,0 km/h (0 Bft) 95,74 %
22.03.2017 22:06 6,9 C 4,4 C 2,2 C 77 % 0 lf 1013,1 hPa 0,0 l/m 0 min 0 min 0 W/m 0,0 km/h (0 Bft) 95,74 %
22.03.2017 22:08 6,9 C 4,4 C 2,2 C 77 % 0 lf 1013,1 hPa 0,0 l/m 0 min 0 min 0 W/m 0,0 km/h (0 Bft) 95,74 %
22.03.2017 22:10 6,8 C 4,4 C 2,2 C 77 % 0 lf 1013,1 hPa 0,0 l/m 0 min 0 min 0 W/m 0,0 km/h (0 Bft) 95,74 %
22.03.2017 22:12 6,8 C 4,4 C 2,2 C 78 % 0 lf 1013,1 hPa 0,0 l/m 0 min 0 min 0 W/m 0,0 km/h (0 Bft) 91,49 %
22.03.2017 22:14 6,7 C 4,4 C 2,2 C 78 % 0 lf 1013,1 hPa 0,0 l/m 0 min 0 min 0 W/m 0,0 km/h (0 Bft) 93,48 %
22.03.2017 22:16 6,6 C 4,4 C 2,2 C 78 % 0 lf 1013,0 hPa 0,0 l/m 0 min 0 min 5 W/m 0,0 km/h (0 Bft) 95,74 %
22.03.2017 22:18 6,6 C 4,4 C 2,2 C 78 % 0 lf 1013,1 hPa 0,0 l/m 0 min 0 min 0 W/m 0,0 km/h (0 Bft) 93,62 %
22.03.2017 22:20 6,5 C 4,4 C 2,2 C 78 % 0 lf 1013,1 hPa 0,0 l/m 0 min 0 min 0 W/m 0,0 km/h (0 Bft) 91,49 %
22.03.2017 22:22 6,4 C 4,4 C 2,2 C 78 % 0 lf 1013,1 hPa 0,0 l/m 0 min 0 min 0 W/m 0,0 km/h (0 Bft) 95,74 %
22.03.2017 22:24 6,4 C 4,4 C 2,2 C 78 % 0 lf 1013,1 hPa 0,0 l/m 0 min 0 min 0 W/m 0,0 km/h (0 Bft) 93,62 %
22.03.2017 22:26 6,4 C 3,9 C 2,2 C 78 % 0 lf 1013,1 hPa 0,0 l/m 0 min 0 min 0 W/m 0,0 km/h (0 Bft) 95,65 %
22.03.2017 22:28 6,3 C 3,9 C 2,2 C 78 % 0 lf 1013,1 hPa 0,0 l/m 0 min 0 min 0 W/m 0,0 km/h (0 Bft) 93,62 %
22.03.2017 22:30 6,2 C 4,4 C 2,2 C 78 % 0 lf 1013,1 hPa 0,0 l/m 0 min 0 min 0 W/m 0,0 km/h (0 Bft) 95,74 %
22.03.2017 22:32 6,2 C 4,4 C 2,2 C 79 % 0 lf 1013,1 hPa 0,0 l/m 0 min 0 min 0 W/m 0,0 km/h (0 Bft) 95,74 %
22.03.2017 22:34 6,2 C 5,0 C 2,2 C 79 % 0 lf 1013,1 hPa 0,0 l/m 0 min 0 min 0 W/m 0,0 km/h (0 Bft) 97,87 %
22.03.2017 22:36 6,1 C 5,0 C 2,2 C 79 % 0 lf 1013,1 hPa 0,0 l/m 0 min 0 min 0 W/m 0,0 km/h (0 Bft) 91,49 %
22.03.2017 22:38 6,1 C 4,4 C 2,2 C 79 % 0 lf 1013,1 hPa 0,0 l/m 0 min 0 min 0 W/m 0,0 km/h (0 Bft) 97,83 %
22.03.2017 22:40 6,0 C 4,4 C 2,2 C 79 % 0 lf 1013,0 hPa 0,0 l/m 0 min 0 min 0 W/m 0,0 km/h (0 Bft) 97,87 %
22.03.2017 22:42 5,9 C 4,4 C 2,2 C 80 % 0 lf 1013,0 hPa 0,0 l/m 0 min 0 min 0 W/m 0,0 km/h (0 Bft) 97,87 %
22.03.2017 22:44 5,9 C 4,4 C 2,2 C 80 % 0 lf 1013,1 hPa 0,0 l/m 0 min 0 min 0 W/m 0,0 km/h (0 Bft) 97,87 %
22.03.2017 22:46 5,9 C 4,4 C 2,2 C 80 % 0 lf 1013,1 hPa 0,0 l/m 0 min 0 min 0 W/m 0,0 km/h (0 Bft) 95,74 %
22.03.2017 22:48 5,8 C 3,9 C 2,2 C 80 % 0 lf 1013,1 hPa 0,0 l/m 0 min 0 min 0 W/m 0,0 km/h (0 Bft) 97,83 %
22.03.2017 22:50 5,8 C 3,9 C 2,2 C 80 % 0 lf 1013,0 hPa 0,0 l/m 0 min 0 min 0 W/m 0,0 km/h (0 Bft) 100,00 %
22.03.2017 22:52 5,7 C 3,9 C 2,2 C 80 % 0 lf 1013,0 hPa 0,0 l/m 0 min 0 min 0 W/m 0,0 km/h (0 Bft) 97,87 %
22.03.2017 22:54 5,7 C 3,9 C 2,2 C 80 % 0 lf 1013,1 hPa 0,0 l/m 0 min 0 min 0 W/m 0,0 km/h (0 Bft) 93,62 %
22.03.2017 22:56 5,7 C 3,9 C 2,2 C 80 % 0 lf 1013,0 hPa 0,0 l/m 0 min 0 min 5 W/m 0,0 km/h (0 Bft) 100,00 %
22.03.2017 22:58 5,6 C 3,9 C 2,2 C 80 % 0 lf 1013,0 hPa 0,0 l/m 0 min 0 min 5 W/m 0,0 km/h (0 Bft) 97,87 %
22.03.2017 23:00 5,6 C 3,9 C 2,2 C 80 % 0 lf 1013,0 hPa 0,0 l/m 0 min 0 min 0 W/m 0,0 km/h (0 Bft) 97,83 %
22.03.2017 23:02 5,6 C 3,9 C 2,2 C 81 % 0 lf 1013,0 hPa 0,0 l/m 0 min 0 min 0 W/m 0,0 km/h (0 Bft) 100,00 %
22.03.2017 23:04 5,5 C 3,9 C 2,2 C 80 % 0 lf 1013,0 hPa 0,0 l/m 0 min 0 min 0 W/m 0,0 km/h (0 Bft) 97,87 %
22.03.2017 23:06 5,4 C 3,9 C 2,2 C 80 % 0 lf 1013,0 hPa 0,0 l/m 0 min 0 min 0 W/m 0,0 km/h (0 Bft) 95,74 %
22.03.2017 23:08 5,4 C 3,9 C 1,7 C 81 % 0 lf 1012,9 hPa 0,0 l/m 0 min 0 min 0 W/m 0,0 km/h (0 Bft) 100,00 %
22.03.2017 23:10 5,4 C 3,9 C 2,2 C 81 % 0 lf 1013,0 hPa 0,0 l/m 0 min 0 min 0 W/m 0,0 km/h (0 Bft) 100,00 %
22.03.2017 23:12 5,4 C 3,9 C 2,2 C 81 % 0 lf 1012,9 hPa 0,0 l/m 0 min 0 min 0 W/m 0,0 km/h (0 Bft) 97,83 %
22.03.2017 23:14 5,3 C 3,9 C 2,2 C 81 % 0 lf 1013,0 hPa 0,0 l/m 0 min 0 min 0 W/m 0,0 km/h (0 Bft) 100,00 %
22.03.2017 23:16 5,3 C 3,9 C 2,2 C 81 % 0 lf 1013,0 hPa 0,0 l/m 0 min 0 min 0 W/m 0,0 km/h (0 Bft) 100,00 %
22.03.2017 23:18 5,3 C 3,9 C 1,7 C 81 % 0 lf 1013,0 hPa 0,0 l/m 0 min 0 min 0 W/m 0,0 km/h (0 Bft) 100,00 %
22.03.2017 23:20 5,2 C 3,9 C 1,7 C 81 % 0 lf 1013,0 hPa 0,0 l/m 0 min 0 min 0 W/m 0,0 km/h (0 Bft) 100,00 %
22.03.2017 23:22 5,2 C 3,9 C 1,7 C 82 % 0 lf 1013,0 hPa 0,0 l/m 0 min 0 min 0 W/m 0,0 km/h (0 Bft) 97,87 %
22.03.2017 23:24 5,2 C 3,9 C 1,7 C 82 % 0 lf 1013,0 hPa 0,0 l/m 0 min 0 min 0 W/m 0,0 km/h (0 Bft) 97,83 %
22.03.2017 23:26 5,2 C 3,9 C 1,7 C 82 % 0 lf 1013,0 hPa 0,0 l/m 0 min 0 min 0 W/m 0,0 km/h (0 Bft) 100,00 %
22.03.2017 23:28 5,1 C 3,9 C 1,7 C 82 % 0 lf 1013,0 hPa 0,0 l/m 0 min 0 min 0 W/m 0,0 km/h (0 Bft) 100,00 %
22.03.2017 23:30 5,1 C 3,9 C 1,7 C 82 % 0 lf 1013,0 hPa 0,0 l/m 0 min 0 min 0 W/m 0,0 km/h (0 Bft) 100,00 %
22.03.2017 23:32 5,1 C 3,9 C 1,7 C 82 % 0 lf 1013,0 hPa 0,0 l/m 0 min 0 min 0 W/m 0,0 km/h (0 Bft) 100,00 %
22.03.2017 23:34 5,1 C 3,9 C 1,7 C 83 % 0 lf 1013,0 hPa 0,0 l/m 0 min 0 min 5 W/m 0,0 km/h (0 Bft) 97,87 %
22.03.2017 23:36 5,0 C 3,9 C 1,7 C 83 % 0 lf 1013,0 hPa 0,0 l/m 0 min 0 min 5 W/m 0,0 km/h (0 Bft) 95,65 %
22.03.2017 23:38 4,9 C 3,9 C 1,7 C 83 % 0 lf 1013,0 hPa 0,0 l/m 0 min 0 min 0 W/m 0,0 km/h (0 Bft) 100,00 %
22.03.2017 23:40 4,9 C 3,9 C 1,7 C 83 % 0 lf 1013,0 hPa 0,0 l/m 0 min 0 min 0 W/m 0,0 km/h (0 Bft) 97,87 %
22.03.2017 23:42 4,9 C 3,9 C 1,7 C 83 % 0 lf 1013,0 hPa 0,0 l/m 0 min 0 min 0 W/m 0,0 km/h (0 Bft) 100,00 %
22.03.2017 23:44 4,9 C 3,9 C 1,7 C 83 % 0 lf 1013,0 hPa 0,0 l/m 0 min 0 min 0 W/m 0,0 km/h (0 Bft) 95,74 %
22.03.2017 23:46 4,8 C 3,9 C 1,7 C 83 % 0 lf 1013,0 hPa 0,0 l/m 0 min 0 min 0 W/m 0,0 km/h (0 Bft) 95,74 %
22.03.2017 23:48 4,8 C 3,9 C 1,7 C 84 % 0 lf 1013,0 hPa 0,0 l/m 0 min 0 min 0 W/m 0,0 km/h (0 Bft) 95,65 %
22.03.2017 23:50 4,8 C 3,9 C 1,7 C 84 % 0 lf 1013,0 hPa 0,0 l/m 0 min 0 min 0 W/m 0,0 km/h (0 Bft) 95,74 %
22.03.2017 23:52 4,8 C 3,9 C 1,7 C 84 % 0 lf 1013,0 hPa 0,0 l/m 0 min 0 min 0 W/m 0,0 km/h (0 Bft) 95,74 %
22.03.2017 23:54 4,8 C 3,3 C 1,7 C 84 % 0 lf 1013,0 hPa 0,0 l/m 0 min 0 min 2 W/m 0,0 km/h (0 Bft) 97,87 %
22.03.2017 23:56 4,7 C 3,3 C 1,7 C 84 % 0 lf 1013,0 hPa 0,0 l/m 0 min 0 min 2 W/m 0,0 km/h (0 Bft) 97,87 %
22.03.2017 23:58 4,7 C 3,3 C 1,7 C 84 % 0 lf 1013,0 hPa 0,0 l/m 0 min 0 min 0 W/m 0,0 km/h (0 Bft) 93,48 %
_ Min-Zeit 06:52 06:34 06:20 14:36 00:00 15:04 - - - - 06:13 04:46
Minimum _ -0,2 C -1,7 C -2,8 C 58 % 0 lf 1012,1 hPa - - - - 0,0 km/h (0 Bft) 85,11 %
_ Max-Zeit 14:30 14:14 14:28 08:00 06:38 09:40 00:00 06:52 00:00 10:56 13:24 00:24
Maximum _ 12,4 C 18,3 C 16,1 C 94 % 2 lf 1013,8 hPa 0,0 l/m 2 min 0 min 788 W/m 41,8 km/h
S (6 Bft)
100,00 %
Durchschnitt _ 6,6 C 8,1 C 5,3 C 76 % 0 lf 1013,1 hPa #0,0 l/m #9:54 h #0 min. 283 W/m 13,6 km/h (3 Bft) 95,98 %
© 2017 W. Hausmann